Time,TemperatureF,DewpointF,PressureIn,WindDirection,WindDirectionDegrees,WindSpeedMPH,WindSpeedGustMPH,Humidity,HourlyPrecipIn,Conditions,Clouds,dailyrainin,SolarRadiationWatts/m^2,SoftwareType,DateUTC
2013-05-07 00:00:00,55.6,53.2,30.03,SSW,192,0.0,0.0,92,0.00,,,0.00,0.0,meteobridge,2013-05-07 05:00:00,
2013-05-07 00:01:00,55.6,53.2,30.03,SSW,192,0.0,0.0,92,0.00,,,0.00,0.0,meteobridge,2013-05-07 05:01:00,
2013-05-07 00:02:00,55.6,53.2,30.03,SSW,192,0.0,0.0,92,0.00,,,0.00,0.0,meteobridge,2013-05-07 05:02:00,
2013-05-07 00:05:00,55.6,53.6,30.03,SSW,192,0.0,0.0,93,0.00,,,0.00,0.0,meteobridge,2013-05-07 05:05:00,
2013-05-07 00:07:00,55.6,53.6,30.03,SSW,192,0.0,0.0,93,0.00,,,0.00,0.0,meteobridge,2013-05-07 05:07:00,
2013-05-07 00:09:00,55.6,53.6,30.03,SSW,192,0.0,0.0,93,0.00,,,0.00,0.0,meteobridge,2013-05-07 05:09:00,
2013-05-07 00:10:00,55.4,53.4,30.03,SSW,192,0.0,0.0,93,0.00,,,0.00,0.0,meteobridge,2013-05-07 05:10:00,
2013-05-07 00:11:00,55.4,53.4,30.03,SSW,192,0.0,0.0,93,0.00,,,0.00,0.0,meteobridge,2013-05-07 05:11:00,
2013-05-07 00:12:00,55.4,53.4,30.03,SSW,192,0.0,0.0,93,0.00,,,0.00,0.0,meteobridge,2013-05-07 05:12:00,
2013-05-07 00:13:00,55.4,53.4,30.03,SSW,192,0.0,0.0,93,0.00,,,0.00,0.0,meteobridge,2013-05-07 05:13:00,
2013-05-07 00:14:00,55.2,53.2,30.03,SSW,192,0.0,0.0,93,0.00,,,0.00,0.0,meteobridge,2013-05-07 05:14:00,
2013-05-07 00:16:00,55.2,53.2,30.03,SSW,192,0.0,0.0,93,0.00,,,0.00,0.0,meteobridge,2013-05-07 05:16:00,
2013-05-07 00:17:00,55.0,53.1,30.03,SSW,192,0.0,0.0,93,0.00,,,0.00,0.0,meteobridge,2013-05-07 05:17:00,
2013-05-07 00:18:00,55.0,53.1,30.03,SSW,192,0.0,0.0,93,0.00,,,0.00,0.0,meteobridge,2013-05-07 05:18:00,
2013-05-07 00:21:00,55.0,53.1,30.03,SSW,192,0.0,0.0,93,0.00,,,0.00,0.0,meteobridge,2013-05-07 05:21:00,
2013-05-07 00:22:00,55.0,53.1,30.03,SSW,192,0.0,0.0,93,0.00,,,0.00,0.0,meteobridge,2013-05-07 05:22:00,
2013-05-07 00:23:00,54.9,52.9,30.03,SSW,192,0.0,0.0,93,0.00,,,0.00,0.0,meteobridge,2013-05-07 05:23:00,
2013-05-07 00:25:00,54.9,52.9,30.03,SSW,192,0.0,0.0,93,0.00,,,0.00,0.0,meteobridge,2013-05-07 05:25:00,
2013-05-07 00:26:00,54.9,52.9,30.03,SSW,192,0.0,0.0,93,0.00,,,0.00,0.0,meteobridge,2013-05-07 05:26:00,
2013-05-07 00:27:00,54.9,52.9,30.03,SSW,192,0.0,0.0,93,0.00,,,0.00,0.0,meteobridge,2013-05-07 05:27:00,
2013-05-07 00:28:00,54.7,52.7,30.03,SSW,192,0.0,0.0,93,0.00,,,0.00,0.0,meteobridge,2013-05-07 05:28:00,
2013-05-07 00:30:00,54.7,52.7,30.03,SSW,192,0.0,0.0,93,0.00,,,0.00,0.0,meteobridge,2013-05-07 05:30:00,
2013-05-07 00:31:00,54.7,52.7,30.03,SSW,192,0.0,0.0,93,0.00,,,0.00,0.0,meteobridge,2013-05-07 05:31:00,
2013-05-07 00:32:00,54.7,52.7,30.03,SSW,192,0.0,0.0,93,0.00,,,0.00,0.0,meteobridge,2013-05-07 05:32:00,
2013-05-07 00:34:00,54.3,52.3,30.03,SSW,192,0.0,0.0,93,0.00,,,0.00,0.0,meteobridge,2013-05-07 05:34:00,
2013-05-07 00:37:00,54.3,52.3,30.03,SSW,192,0.0,0.0,93,0.00,,,0.00,0.0,meteobridge,2013-05-07 05:37:00,
2013-05-07 00:38:00,54.3,52.7,30.03,SSW,192,0.0,0.0,94,0.00,,,0.00,0.0,meteobridge,2013-05-07 05:38:00,
2013-05-07 00:39:00,54.3,52.7,30.03,SSW,192,0.0,0.0,94,0.00,,,0.00,0.0,meteobridge,2013-05-07 05:39:00,
2013-05-07 00:41:00,54.1,52.5,30.03,SSW,192,0.0,0.0,94,0.00,,,0.00,0.0,meteobridge,2013-05-07 05:41:00,
2013-05-07 00:43:00,54.1,52.5,30.04,SSW,192,0.0,0.0,94,0.00,,,0.00,0.0,meteobridge,2013-05-07 05:43:00,
2013-05-07 00:45:00,54.1,52.5,30.04,SSW,192,0.0,0.0,94,0.00,,,0.00,0.0,meteobridge,2013-05-07 05:45:00,
2013-05-07 00:46:00,54.1,52.5,30.04,SSW,192,0.0,0.0,94,0.00,,,0.00,0.0,meteobridge,2013-05-07 05:46:00,
2013-05-07 00:47:00,54.1,52.5,30.04,SSW,192,0.0,0.0,94,0.00,,,0.00,0.0,meteobridge,2013-05-07 05:47:00,
2013-05-07 00:49:00,54.0,52.3,30.04,SSW,192,0.0,0.0,94,0.00,,,0.00,0.0,meteobridge,2013-05-07 05:49:00,
2013-05-07 00:50:00,54.0,52.3,30.04,SSW,192,0.0,0.0,94,0.00,,,0.00,0.0,meteobridge,2013-05-07 05:50:00,
2013-05-07 00:51:00,54.0,52.3,30.04,SSW,192,0.0,0.0,94,0.00,,,0.00,0.0,meteobridge,2013-05-07 05:51:00,
2013-05-07 00:52:00,54.0,52.3,30.04,SSW,192,0.0,0.0,94,0.00,,,0.00,0.0,meteobridge,2013-05-07 05:52:00,
2013-05-07 00:54:00,54.0,52.3,30.04,SSW,192,0.0,0.0,94,0.00,,,0.00,0.0,meteobridge,2013-05-07 05:54:00,
2013-05-07 00:55:00,53.8,52.2,30.04,SSW,192,0.0,0.0,94,0.00,,,0.00,0.0,meteobridge,2013-05-07 05:55:00,
2013-05-07 00:57:00,53.8,52.2,30.04,SSW,192,0.0,0.0,94,0.00,,,0.00,0.0,meteobridge,2013-05-07 05:57:00,
2013-05-07 00:58:00,53.8,52.2,30.04,SSW,192,0.0,0.0,94,0.00,,,0.00,0.0,meteobridge,2013-05-07 05:58:00,
2013-05-07 00:59:00,53.8,52.2,30.04,SSW,192,0.0,0.0,94,0.00,,,0.00,0.0,meteobridge,2013-05-07 05:59:00,
2013-05-07 01:01:00,53.8,52.2,30.04,SSW,192,0.0,0.0,94,0.00,,,0.00,0.0,meteobridge,2013-05-07 06:01:00,
2013-05-07 01:03:00,53.8,52.2,30.04,SSW,192,0.0,0.0,94,0.00,,,0.00,0.0,meteobridge,2013-05-07 06:03:00,
2013-05-07 01:04:00,53.8,52.2,30.04,SSW,192,0.0,0.0,94,0.00,,,0.00,0.0,meteobridge,2013-05-07 06:04:00,
2013-05-07 01:08:00,53.8,52.2,30.04,SSW,192,0.0,0.0,94,0.00,,,0.00,0.0,meteobridge,2013-05-07 06:08:00,
2013-05-07 01:09:00,53.8,52.2,30.04,SSW,192,0.0,0.0,94,0.00,,,0.00,0.0,meteobridge,2013-05-07 06:09:00,
2013-05-07 01:10:00,53.8,52.2,30.04,SSW,192,0.0,0.0,94,0.00,,,0.00,0.0,meteobridge,2013-05-07 06:10:00,
2013-05-07 01:13:00,53.8,52.2,30.04,SSW,192,0.0,0.0,94,0.00,,,0.00,0.0,meteobridge,2013-05-07 06:13:00,
2013-05-07 01:14:00,53.8,52.2,30.04,SSW,192,0.0,0.0,94,0.00,,,0.00,0.0,meteobridge,2013-05-07 06:14:00,
2013-05-07 01:15:00,53.8,52.2,30.04,SSW,192,0.0,0.0,94,0.00,,,0.00,0.0,meteobridge,2013-05-07 06:15:00,
2013-05-07 01:16:00,53.8,52.2,30.04,SSW,192,0.0,0.0,94,0.00,,,0.00,0.0,meteobridge,2013-05-07 06:16:00,
2013-05-07 01:19:00,53.8,52.2,30.04,SSW,192,0.0,0.0,94,0.00,,,0.00,0.0,meteobridge,2013-05-07 06:19:00,
2013-05-07 01:20:00,54.0,52.3,30.04,SSW,192,0.0,0.0,94,0.00,,,0.00,0.0,meteobridge,2013-05-07 06:20:00,
2013-05-07 01:22:00,54.0,52.3,30.04,SSW,192,0.0,0.0,94,0.00,,,0.00,0.0,meteobridge,2013-05-07 06:22:00,
2013-05-07 01:23:00,54.0,52.3,30.04,SSW,192,0.0,0.0,94,0.00,,,0.00,0.0,meteobridge,2013-05-07 06:23:00,
2013-05-07 01:24:00,54.0,52.3,30.04,SSW,192,0.0,0.0,94,0.00,,,0.00,0.0,meteobridge,2013-05-07 06:24:00,
2013-05-07 01:25:00,54.0,52.3,30.04,SSW,192,0.0,0.0,94,0.00,,,0.00,0.0,meteobridge,2013-05-07 06:25:00,
2013-05-07 01:26:00,54.0,52.3,30.04,SSW,192,0.0,0.0,94,0.00,,,0.00,0.0,meteobridge,2013-05-07 06:26:00,
2013-05-07 01:27:00,54.0,52.3,30.04,SSW,192,0.0,0.0,94,0.00,,,0.00,0.0,meteobridge,2013-05-07 06:27:00,
2013-05-07 01:29:00,54.0,52.3,30.04,SSW,192,0.0,0.0,94,0.00,,,0.00,0.0,meteobridge,2013-05-07 06:29:00,
2013-05-07 01:30:00,54.1,52.5,30.04,SSW,192,0.0,0.0,94,0.00,,,0.00,0.0,meteobridge,2013-05-07 06:30:00,
2013-05-07 01:31:00,54.1,52.5,30.04,SSW,192,0.0,0.0,94,0.00,,,0.00,0.0,meteobridge,2013-05-07 06:31:00,
2013-05-07 01:33:00,54.3,52.7,30.04,SSW,192,0.0,0.0,94,0.00,,,0.00,0.0,meteobridge,2013-05-07 06:33:00,
2013-05-07 01:34:00,54.3,52.9,30.04,SSW,192,0.0,0.0,95,0.00,,,0.00,0.0,meteobridge,2013-05-07 06:34:00,
2013-05-07 01:37:00,54.3,52.7,30.04,SSW,192,0.0,0.0,94,0.00,,,0.00,0.0,meteobridge,2013-05-07 06:37:00,
2013-05-07 01:38:00,54.3,52.7,30.04,SSW,192,0.0,0.0,94,0.00,,,0.00,0.0,meteobridge,2013-05-07 06:38:00,
2013-05-07 01:40:00,54.5,52.9,30.04,SSW,192,0.0,0.0,94,0.00,,,0.00,0.0,meteobridge,2013-05-07 06:40:00,
2013-05-07 01:42:00,54.7,53.1,30.04,SSW,192,0.0,0.0,94,0.00,,,0.00,0.0,meteobridge,2013-05-07 06:42:00,
2013-05-07 01:43:00,54.7,53.1,30.04,SSW,192,0.0,0.0,94,0.00,,,0.00,0.0,meteobridge,2013-05-07 06:43:00,
2013-05-07 01:44:00,54.7,53.1,30.04,SSW,192,0.0,0.0,94,0.00,,,0.00,0.0,meteobridge,2013-05-07 06:44:00,
2013-05-07 01:45:00,54.7,53.1,30.04,SSW,192,0.0,0.0,94,0.00,,,0.00,0.0,meteobridge,2013-05-07 06:45:00,
2013-05-07 01:47:00,54.9,53.2,30.04,SSW,192,0.0,0.0,94,0.00,,,0.00,0.0,meteobridge,2013-05-07 06:47:00,
2013-05-07 01:49:00,54.7,53.1,30.04,SSW,192,0.0,0.0,94,0.00,,,0.00,0.0,meteobridge,2013-05-07 06:49:00,
2013-05-07 01:51:00,54.7,53.1,30.04,SSW,192,0.0,0.0,94,0.00,,,0.00,0.0,meteobridge,2013-05-07 06:51:00,
2013-05-07 01:54:00,54.9,53.2,30.04,SSW,192,0.0,0.0,94,0.00,,,0.00,0.0,meteobridge,2013-05-07 06:54:00,
2013-05-07 01:55:00,54.9,53.2,30.04,SSW,192,0.0,0.0,94,0.00,,,0.00,0.0,meteobridge,2013-05-07 06:55:00,
2013-05-07 01:56:00,54.9,53.2,30.04,SSW,192,0.0,0.0,94,0.00,,,0.00,0.0,meteobridge,2013-05-07 06:56:00,
2013-05-07 01:59:00,54.9,53.2,30.04,SSW,192,0.0,0.0,94,0.00,,,0.00,0.0,meteobridge,2013-05-07 06:59:00,
2013-05-07 02:01:00,54.9,53.2,30.03,SSW,192,0.0,0.0,94,0.00,,,0.00,0.0,meteobridge,2013-05-07 07:01:00,
2013-05-07 02:02:00,54.9,53.2,30.03,SSW,192,0.0,0.0,94,0.00,,,0.00,0.0,meteobridge,2013-05-07 07:02:00,
2013-05-07 02:04:00,54.9,53.2,30.03,SSW,192,0.0,0.0,94,0.00,,,0.00,0.0,meteobridge,2013-05-07 07:04:00,
2013-05-07 02:05:00,54.9,53.2,30.03,SSW,192,0.0,0.0,94,0.00,,,0.00,0.0,meteobridge,2013-05-07 07:05:00,
2013-05-07 02:07:00,54.9,53.2,30.03,SSW,192,0.0,0.0,94,0.00,,,0.00,0.0,meteobridge,2013-05-07 07:07:00,
2013-05-07 02:08:00,54.9,53.2,30.03,SSW,192,0.0,0.0,94,0.00,,,0.00,0.0,meteobridge,2013-05-07 07:08:00,
2013-05-07 02:09:00,54.9,53.2,30.03,SSW,192,0.0,0.0,94,0.00,,,0.00,0.0,meteobridge,2013-05-07 07:09:00,
2013-05-07 02:12:00,54.9,53.2,30.03,SSW,192,0.0,0.0,94,0.00,,,0.00,0.0,meteobridge,2013-05-07 07:12:00,
2013-05-07 02:13:00,54.9,53.2,30.03,SSW,192,0.0,0.0,94,0.00,,,0.00,0.0,meteobridge,2013-05-07 07:13:00,
2013-05-07 02:14:00,55.0,53.4,30.03,SSW,192,0.0,0.0,94,0.00,,,0.00,0.0,meteobridge,2013-05-07 07:14:00,
2013-05-07 02:17:00,55.0,53.4,30.03,SSW,192,0.0,0.0,94,0.00,,,0.00,0.0,meteobridge,2013-05-07 07:17:00,
2013-05-07 02:18:00,54.9,53.2,30.03,SSW,192,0.0,0.0,94,0.00,,,0.00,0.0,meteobridge,2013-05-07 07:18:00,
2013-05-07 02:19:00,55.0,53.4,30.03,SSW,192,0.0,0.0,94,0.00,,,0.00,0.0,meteobridge,2013-05-07 07:19:00,
2013-05-07 02:20:00,54.9,53.2,30.03,SSW,192,0.0,0.0,94,0.00,,,0.00,0.0,meteobridge,2013-05-07 07:20:00,
2013-05-07 02:24:00,54.9,53.2,30.03,SSW,192,0.0,0.0,94,0.00,,,0.00,0.0,meteobridge,2013-05-07 07:24:00,
2013-05-07 02:25:00,55.0,53.4,30.03,SSW,192,0.0,0.0,94,0.00,,,0.00,0.0,meteobridge,2013-05-07 07:25:00,
2013-05-07 02:26:00,55.0,53.4,30.03,SSW,192,0.0,0.0,94,0.00,,,0.00,0.0,meteobridge,2013-05-07 07:26:00,
2013-05-07 02:27:00,55.0,53.4,30.03,SSW,192,0.0,0.0,94,0.00,,,0.00,0.0,meteobridge,2013-05-07 07:27:00,
2013-05-07 02:30:00,54.9,53.2,30.03,SSW,192,0.0,0.0,94,0.00,,,0.00,0.0,meteobridge,2013-05-07 07:30:00,
2013-05-07 02:31:00,54.9,53.2,30.03,SSW,192,0.0,0.0,94,0.00,,,0.00,0.0,meteobridge,2013-05-07 07:31:00,
2013-05-07 02:32:00,54.9,53.2,30.03,SSW,192,0.0,0.0,94,0.00,,,0.00,0.0,meteobridge,2013-05-07 07:32:00,
2013-05-07 02:33:00,55.0,53.4,30.03,SSW,192,0.0,0.0,94,0.00,,,0.00,0.0,meteobridge,2013-05-07 07:33:00,
2013-05-07 02:37:00,55.0,53.4,30.03,SSW,192,0.0,0.0,94,0.00,,,0.00,0.0,meteobridge,2013-05-07 07:37:00,
2013-05-07 02:38:00,55.0,53.4,30.03,SSW,192,0.0,0.0,94,0.00,,,0.00,0.0,meteobridge,2013-05-07 07:38:00,
2013-05-07 02:39:00,55.0,53.4,30.03,SSW,192,0.0,0.0,94,0.00,,,0.00,0.0,meteobridge,2013-05-07 07:39:00,
2013-05-07 02:40:00,55.0,53.4,30.03,SSW,192,0.0,0.0,94,0.00,,,0.00,0.0,meteobridge,2013-05-07 07:40:00,
2013-05-07 02:42:00,55.2,53.6,30.03,SSW,192,0.0,0.0,94,0.00,,,0.00,0.0,meteobridge,2013-05-07 07:42:00,
2013-05-07 02:43:00,55.2,53.6,30.03,SSW,192,0.0,0.0,94,0.00,,,0.00,0.0,meteobridge,2013-05-07 07:43:00,
2013-05-07 02:44:00,55.2,53.6,30.03,SSW,192,0.0,0.0,94,0.00,,,0.00,0.0,meteobridge,2013-05-07 07:44:00,
2013-05-07 02:47:00,55.2,53.6,30.03,SSW,192,0.0,0.0,94,0.00,,,0.00,0.0,meteobridge,2013-05-07 07:47:00,
2013-05-07 02:48:00,55.2,53.6,30.03,SSW,192,0.0,0.0,94,0.00,,,0.00,0.0,meteobridge,2013-05-07 07:48:00,
2013-05-07 02:51:00,55.2,53.6,30.03,SSW,192,0.0,0.0,94,0.00,,,0.00,0.0,meteobridge,2013-05-07 07:51:00,
2013-05-07 02:52:00,55.4,53.8,30.03,SSW,192,0.0,0.0,94,0.00,,,0.00,0.0,meteobridge,2013-05-07 07:52:00,
2013-05-07 02:53:00,55.2,53.6,30.03,SSW,192,0.0,0.0,94,0.00,,,0.00,0.0,meteobridge,2013-05-07 07:53:00,
2013-05-07 02:55:00,55.4,53.8,30.03,SSW,192,0.0,0.0,94,0.00,,,0.00,0.0,meteobridge,2013-05-07 07:55:00,
2013-05-07 02:57:00,55.4,53.8,30.03,SSW,192,0.0,0.0,94,0.00,,,0.00,0.0,meteobridge,2013-05-07 07:57:00,
2013-05-07 02:58:00,55.6,54.0,30.03,SSW,192,0.0,0.0,94,0.00,,,0.00,0.0,meteobridge,2013-05-07 07:58:00,
2013-05-07 03:00:00,55.6,54.0,30.03,SSW,192,0.0,0.0,94,0.00,,,0.00,0.0,meteobridge,2013-05-07 08:00:00,
2013-05-07 03:02:00,55.6,54.0,30.03,SSW,192,0.0,0.0,94,0.00,,,0.00,0.0,meteobridge,2013-05-07 08:02:00,
2013-05-07 03:05:00,55.6,54.0,30.03,SSW,192,0.0,0.0,94,0.00,,,0.00,0.0,meteobridge,2013-05-07 08:05:00,
2013-05-07 03:07:00,55.8,54.1,30.03,SSW,192,0.0,0.0,94,0.00,,,0.00,0.0,meteobridge,2013-05-07 08:07:00,
2013-05-07 03:08:00,55.8,54.1,30.03,SSW,192,0.0,0.0,94,0.00,,,0.00,0.0,meteobridge,2013-05-07 08:08:00,
2013-05-07 03:10:00,55.8,54.1,30.03,SSW,192,0.0,0.0,94,0.00,,,0.00,0.0,meteobridge,2013-05-07 08:10:00,
2013-05-07 03:11:00,55.8,54.1,30.03,SSW,192,0.0,0.0,94,0.00,,,0.00,0.0,meteobridge,2013-05-07 08:11:00,
2013-05-07 03:12:00,55.8,54.1,30.03,SSW,192,0.0,0.0,94,0.00,,,0.00,0.0,meteobridge,2013-05-07 08:12:00,
2013-05-07 03:13:00,55.8,54.1,30.03,SSW,192,0.0,0.0,94,0.00,,,0.00,0.0,meteobridge,2013-05-07 08:13:00,
2013-05-07 03:17:00,55.8,54.1,30.03,SSW,192,0.0,0.0,94,0.00,,,0.00,0.0,meteobridge,2013-05-07 08:17:00,
2013-05-07 03:18:00,55.6,54.0,30.03,SSW,192,0.0,0.0,94,0.00,,,0.00,0.0,meteobridge,2013-05-07 08:18:00,
2013-05-07 03:19:00,55.6,54.0,30.03,SSW,192,0.0,0.0,94,0.00,,,0.00,0.0,meteobridge,2013-05-07 08:19:00,
2013-05-07 03:22:00,55.6,54.0,30.03,SSW,192,0.0,0.0,94,0.00,,,0.00,0.0,meteobridge,2013-05-07 08:22:00,
2013-05-07 03:23:00,55.6,54.0,30.03,SSW,192,0.0,0.0,94,0.00,,,0.00,0.0,meteobridge,2013-05-07 08:23:00,
2013-05-07 03:24:00,55.6,54.0,30.03,SSW,192,0.0,0.0,94,0.00,,,0.00,0.0,meteobridge,2013-05-07 08:24:00,
2013-05-07 03:27:00,55.4,53.8,30.03,SSW,192,0.0,0.0,94,0.00,,,0.00,0.0,meteobridge,2013-05-07 08:27:00,
2013-05-07 03:28:00,55.2,53.6,30.03,SSW,192,0.0,0.0,94,0.00,,,0.00,0.0,meteobridge,2013-05-07 08:28:00,
2013-05-07 03:29:00,55.2,53.6,30.03,SSW,192,0.0,0.0,94,0.00,,,0.00,0.0,meteobridge,2013-05-07 08:29:00,
2013-05-07 03:32:00,55.2,53.6,30.03,SSW,192,0.0,0.0,94,0.00,,,0.00,0.0,meteobridge,2013-05-07 08:32:00,
2013-05-07 03:33:00,55.2,53.6,30.03,SSW,192,0.0,0.0,94,0.00,,,0.00,0.0,meteobridge,2013-05-07 08:33:00,
2013-05-07 03:34:00,55.2,53.6,30.03,SSW,192,0.0,0.0,94,0.00,,,0.00,0.0,meteobridge,2013-05-07 08:34:00,
2013-05-07 03:37:00,55.0,53.4,30.03,SSW,192,0.0,0.0,94,0.00,,,0.00,0.0,meteobridge,2013-05-07 08:37:00,
2013-05-07 03:38:00,54.9,53.2,30.03,SSW,192,0.0,0.0,94,0.00,,,0.00,0.0,meteobridge,2013-05-07 08:38:00,
2013-05-07 03:39:00,54.9,53.2,30.03,SSW,192,0.0,0.0,94,0.00,,,0.00,0.0,meteobridge,2013-05-07 08:39:00,
2013-05-07 03:41:00,54.9,53.2,30.03,SSW,192,0.0,0.0,94,0.00,,,0.00,0.0,meteobridge,2013-05-07 08:41:00,
2013-05-07 03:42:00,54.9,53.2,30.04,SSW,192,0.0,0.0,94,0.00,,,0.00,0.0,meteobridge,2013-05-07 08:42:00,
2013-05-07 03:44:00,54.9,53.2,30.04,SSW,192,0.0,0.0,94,0.00,,,0.00,0.0,meteobridge,2013-05-07 08:44:00,
2013-05-07 03:45:00,54.7,53.1,30.04,SSW,192,0.0,0.0,94,0.00,,,0.00,0.0,meteobridge,2013-05-07 08:45:00,
2013-05-07 03:47:00,54.7,53.1,30.03,SSW,192,0.0,0.0,94,0.00,,,0.00,0.0,meteobridge,2013-05-07 08:47:00,
2013-05-07 03:49:00,54.7,53.1,30.04,SSW,192,0.0,0.0,94,0.00,,,0.00,0.0,meteobridge,2013-05-07 08:49:00,
2013-05-07 03:50:00,54.7,53.1,30.04,SSW,192,0.0,0.0,94,0.00,,,0.00,0.0,meteobridge,2013-05-07 08:50:00,
2013-05-07 03:51:00,54.7,53.1,30.04,SSW,192,0.0,0.0,94,0.00,,,0.00,0.0,meteobridge,2013-05-07 08:51:00,
2013-05-07 03:52:00,54.7,53.1,30.04,SSW,192,0.0,0.0,94,0.00,,,0.00,0.0,meteobridge,2013-05-07 08:52:00,
2013-05-07 03:53:00,54.5,52.9,30.04,SSW,192,0.0,0.0,94,0.00,,,0.00,0.0,meteobridge,2013-05-07 08:53:00,
2013-05-07 03:55:00,54.5,52.9,30.04,SSW,192,0.0,0.0,94,0.00,,,0.00,0.0,meteobridge,2013-05-07 08:55:00,
2013-05-07 03:57:00,54.3,52.7,30.04,SSW,192,0.0,0.0,94,0.00,,,0.00,0.0,meteobridge,2013-05-07 08:57:00,
2013-05-07 03:58:00,54.3,52.7,30.04,SSW,192,0.0,0.0,94,0.00,,,0.00,0.0,meteobridge,2013-05-07 08:58:00,
2013-05-07 04:02:00,54.1,52.5,30.04,SSW,192,0.0,0.0,94,0.00,,,0.00,0.0,meteobridge,2013-05-07 09:02:00,
2013-05-07 04:03:00,54.1,52.5,30.04,SSW,192,0.0,0.0,94,0.00,,,0.00,0.0,meteobridge,2013-05-07 09:03:00,
2013-05-07 04:04:00,54.1,52.5,30.04,SSW,192,0.0,0.0,94,0.00,,,0.00,0.0,meteobridge,2013-05-07 09:04:00,
2013-05-07 04:07:00,54.0,52.3,30.04,SSW,192,0.0,0.0,94,0.00,,,0.00,0.0,meteobridge,2013-05-07 09:07:00,
2013-05-07 04:08:00,54.0,52.5,30.04,SSW,192,0.0,0.0,95,0.00,,,0.00,0.0,meteobridge,2013-05-07 09:08:00,
2013-05-07 04:09:00,54.0,52.5,30.04,SSW,192,0.0,0.0,95,0.00,,,0.00,0.0,meteobridge,2013-05-07 09:09:00,
2013-05-07 04:11:00,53.8,52.3,30.04,SSW,192,0.0,0.0,95,0.00,,,0.00,0.0,meteobridge,2013-05-07 09:11:00,
2013-05-07 04:13:00,53.8,52.3,30.04,SSW,192,0.0,0.0,95,0.00,,,0.00,0.0,meteobridge,2013-05-07 09:13:00,
2013-05-07 04:14:00,53.8,52.3,30.04,SSW,192,0.0,0.0,95,0.00,,,0.00,0.0,meteobridge,2013-05-07 09:14:00,
2013-05-07 04:16:00,53.6,52.2,30.04,SSW,192,0.0,0.0,95,0.00,,,0.00,0.0,meteobridge,2013-05-07 09:16:00,
2013-05-07 04:17:00,53.6,52.2,30.04,SSW,192,0.0,0.0,95,0.00,,,0.00,0.0,meteobridge,2013-05-07 09:17:00,
2013-05-07 04:20:00,53.4,52.0,30.04,SSW,192,0.0,0.0,95,0.00,,,0.00,0.0,meteobridge,2013-05-07 09:20:00,
2013-05-07 04:22:00,53.2,51.8,30.04,SSW,192,0.0,0.0,95,0.00,,,0.00,0.0,meteobridge,2013-05-07 09:22:00,
2013-05-07 04:24:00,53.2,51.8,30.04,SSW,192,0.0,0.0,95,0.00,,,0.00,0.0,meteobridge,2013-05-07 09:24:00,
2013-05-07 04:25:00,53.2,51.8,30.04,SSW,192,0.0,0.0,95,0.00,,,0.00,0.0,meteobridge,2013-05-07 09:25:00,
2013-05-07 04:26:00,53.1,51.6,30.04,SSW,192,0.0,0.0,95,0.00,,,0.00,0.0,meteobridge,2013-05-07 09:26:00,
2013-05-07 04:28:00,53.1,51.6,30.04,SSW,192,0.0,0.0,95,0.00,,,0.00,0.0,meteobridge,2013-05-07 09:28:00,
2013-05-07 04:30:00,53.1,51.6,30.04,SSW,192,0.0,0.0,95,0.00,,,0.00,0.0,meteobridge,2013-05-07 09:30:00,
2013-05-07 04:31:00,53.1,51.6,30.04,SSW,192,0.0,0.0,95,0.00,,,0.00,0.0,meteobridge,2013-05-07 09:31:00,
2013-05-07 04:33:00,52.9,51.4,30.04,SSW,192,0.0,0.0,95,0.00,,,0.00,0.0,meteobridge,2013-05-07 09:33:00,
2013-05-07 04:35:00,52.9,51.4,30.04,SSW,192,0.0,0.0,95,0.00,,,0.00,0.0,meteobridge,2013-05-07 09:35:00,
2013-05-07 04:36:00,52.9,51.4,30.04,SSW,192,0.0,0.0,95,0.00,,,0.00,0.0,meteobridge,2013-05-07 09:36:00,
2013-05-07 04:37:00,52.9,51.4,30.04,SSW,192,0.0,0.0,95,0.00,,,0.00,0.0,meteobridge,2013-05-07 09:37:00,
2013-05-07 04:40:00,52.7,51.3,30.04,SSW,192,0.0,0.0,95,0.00,,,0.00,0.0,meteobridge,2013-05-07 09:40:00,
2013-05-07 04:41:00,52.5,51.1,30.04,SSW,192,0.0,0.0,95,0.00,,,0.00,0.0,meteobridge,2013-05-07 09:41:00,
2013-05-07 04:42:00,52.5,51.1,30.04,SSW,192,0.0,0.0,95,0.00,,,0.00,0.0,meteobridge,2013-05-07 09:42:00,
2013-05-07 04:43:00,52.5,51.1,30.04,SSW,192,0.0,0.0,95,0.00,,,0.00,0.0,meteobridge,2013-05-07 09:43:00,
2013-05-07 04:47:00,52.3,50.9,30.05,SSW,192,0.0,0.0,95,0.00,,,0.00,0.0,meteobridge,2013-05-07 09:47:00,
2013-05-07 04:48:00,52.3,50.9,30.05,SSW,192,0.0,0.0,95,0.00,,,0.00,0.0,meteobridge,2013-05-07 09:48:00,
2013-05-07 04:49:00,52.3,50.9,30.05,SSW,192,0.0,0.0,95,0.00,,,0.00,0.0,meteobridge,2013-05-07 09:49:00,
2013-05-07 04:50:00,52.3,50.9,30.04,SSW,192,0.0,0.0,95,0.00,,,0.00,0.0,meteobridge,2013-05-07 09:50:00,
2013-05-07 04:54:00,52.2,50.7,30.04,SSW,192,0.0,0.0,95,0.00,,,0.00,0.0,meteobridge,2013-05-07 09:54:00,
2013-05-07 04:55:00,52.2,50.7,30.04,SSW,192,0.0,0.0,95,0.00,,,0.00,0.0,meteobridge,2013-05-07 09:55:00,
2013-05-07 04:56:00,52.0,50.5,30.04,SSW,192,0.0,0.0,95,0.00,,,0.00,0.0,meteobridge,2013-05-07 09:56:00,
2013-05-07 04:59:00,52.0,50.9,30.05,SSW,192,0.0,0.0,96,0.00,,,0.00,0.0,meteobridge,2013-05-07 09:59:00,
2013-05-07 05:00:00,52.0,50.9,30.05,SSW,192,0.0,0.0,96,0.00,,,0.00,0.0,meteobridge,2013-05-07 10:00:00,
2013-05-07 05:01:00,52.0,50.5,30.05,SSW,192,0.0,0.0,95,0.00,,,0.00,0.0,meteobridge,2013-05-07 10:01:00,
2013-05-07 05:04:00,52.0,50.5,30.04,SSW,192,0.0,0.0,95,0.00,,,0.00,0.0,meteobridge,2013-05-07 10:04:00,
2013-05-07 05:05:00,52.0,50.5,30.04,SSW,192,0.0,0.0,95,0.00,,,0.00,0.0,meteobridge,2013-05-07 10:05:00,
2013-05-07 05:06:00,52.0,50.5,30.04,SSW,192,0.0,0.0,95,0.00,,,0.00,0.0,meteobridge,2013-05-07 10:06:00,
2013-05-07 05:07:00,51.8,50.4,30.04,SSW,192,0.0,0.0,95,0.00,,,0.00,0.0,meteobridge,2013-05-07 10:07:00,
2013-05-07 05:10:00,51.8,50.7,30.04,SSW,192,0.0,0.0,96,0.00,,,0.00,0.0,meteobridge,2013-05-07 10:10:00,
2013-05-07 05:11:00,51.6,50.5,30.05,SSW,192,0.0,0.0,96,0.00,,,0.00,0.0,meteobridge,2013-05-07 10:11:00,
2013-05-07 05:12:00,51.6,50.5,30.04,SSW,192,0.0,0.0,96,0.00,,,0.00,0.0,meteobridge,2013-05-07 10:12:00,
2013-05-07 05:13:00,51.6,50.5,30.05,SSW,192,0.0,0.0,96,0.00,,,0.00,0.0,meteobridge,2013-05-07 10:13:00,
2013-05-07 05:14:00,51.4,50.4,30.05,SSW,192,0.0,0.0,96,0.00,,,0.00,0.0,meteobridge,2013-05-07 10:14:00,
2013-05-07 05:16:00,51.4,50.4,30.05,SSW,192,0.0,0.0,96,0.00,,,0.00,0.0,meteobridge,2013-05-07 10:16:00,
2013-05-07 05:17:00,51.4,50.4,30.05,SSW,192,0.0,0.0,96,0.00,,,0.00,0.0,meteobridge,2013-05-07 10:17:00,
2013-05-07 05:19:00,51.4,50.0,30.05,SSW,192,0.0,0.0,95,0.00,,,0.00,0.0,meteobridge,2013-05-07 10:19:00,
2013-05-07 05:20:00,51.3,49.8,30.05,SSW,192,0.0,0.0,95,0.00,,,0.00,0.0,meteobridge,2013-05-07 10:20:00,
2013-05-07 05:22:00,51.3,49.8,30.05,SSW,192,0.0,0.0,95,0.00,,,0.00,0.0,meteobridge,2013-05-07 10:22:00,
2013-05-07 05:23:00,51.3,50.2,30.05,SSW,192,0.0,0.0,96,0.00,,,0.00,0.0,meteobridge,2013-05-07 10:23:00,
2013-05-07 05:26:00,51.3,50.2,30.05,SSW,192,0.0,0.0,96,0.00,,,0.00,0.0,meteobridge,2013-05-07 10:26:00,
2013-05-07 05:27:00,51.3,50.2,30.05,SSW,192,0.0,0.0,96,0.00,,,0.00,0.0,meteobridge,2013-05-07 10:27:00,
2013-05-07 05:28:00,51.3,50.2,30.05,SSW,192,0.0,0.0,96,0.00,,,0.00,0.0,meteobridge,2013-05-07 10:28:00,
2013-05-07 05:29:00,51.1,50.0,30.05,SSW,192,0.0,0.0,96,0.00,,,0.00,0.0,meteobridge,2013-05-07 10:29:00,
2013-05-07 05:30:00,51.1,50.0,30.05,SSW,192,0.0,0.0,96,0.00,,,0.00,0.0,meteobridge,2013-05-07 10:30:00,
2013-05-07 05:32:00,51.1,50.0,30.05,SSW,192,0.0,0.0,96,0.00,,,0.00,0.0,meteobridge,2013-05-07 10:32:00,
2013-05-07 05:34:00,51.1,50.0,30.05,SSW,192,0.0,0.0,96,0.00,,,0.00,0.0,meteobridge,2013-05-07 10:34:00,
2013-05-07 05:35:00,51.1,50.0,30.05,SSW,192,0.0,0.0,96,0.00,,,0.00,0.0,meteobridge,2013-05-07 10:35:00,
2013-05-07 05:37:00,50.9,49.8,30.05,SSW,192,0.0,0.0,96,0.00,,,0.00,0.0,meteobridge,2013-05-07 10:37:00,
2013-05-07 05:40:00,50.9,49.8,30.05,SSW,192,0.0,0.0,96,0.00,,,0.00,0.0,meteobridge,2013-05-07 10:40:00,
2013-05-07 05:41:00,50.9,49.8,30.05,SSW,192,0.0,0.0,96,0.00,,,0.00,0.0,meteobridge,2013-05-07 10:41:00,
2013-05-07 05:42:00,50.7,49.6,30.05,SSW,192,0.0,0.0,96,0.00,,,0.00,0.0,meteobridge,2013-05-07 10:42:00,
2013-05-07 05:44:00,50.9,49.8,30.05,SSW,192,0.0,0.0,96,0.00,,,0.00,0.0,meteobridge,2013-05-07 10:44:00,
2013-05-07 05:45:00,50.9,49.8,30.05,SSW,192,0.0,0.0,96,0.00,,,0.00,0.0,meteobridge,2013-05-07 10:45:00,
2013-05-07 05:46:00,50.9,49.8,30.05,SSW,192,0.0,0.0,96,0.00,,,0.00,0.0,meteobridge,2013-05-07 10:46:00,
2013-05-07 05:47:00,50.7,49.6,30.05,SSW,192,0.0,0.0,96,0.00,,,0.00,0.0,meteobridge,2013-05-07 10:47:00,
2013-05-07 05:49:00,50.7,49.6,30.05,SSW,192,0.0,0.0,96,0.00,,,0.00,0.0,meteobridge,2013-05-07 10:49:00,
2013-05-07 05:51:00,50.7,49.6,30.05,SSW,192,0.0,0.0,96,0.00,,,0.00,0.0,meteobridge,2013-05-07 10:51:00,
2013-05-07 05:52:00,50.7,49.6,30.05,SSW,192,0.0,0.0,96,0.00,,,0.00,0.0,meteobridge,2013-05-07 10:52:00,
2013-05-07 05:54:00,50.7,49.6,30.05,SSW,192,0.0,0.0,96,0.00,,,0.00,0.0,meteobridge,2013-05-07 10:54:00,
2013-05-07 05:56:00,50.7,49.6,30.06,SSW,192,0.0,0.0,96,0.00,,,0.00,0.0,meteobridge,2013-05-07 10:56:00,
2013-05-07 05:58:00,50.7,49.6,30.05,SSW,192,0.0,0.0,96,0.00,,,0.00,0.0,meteobridge,2013-05-07 10:58:00,
2013-05-07 05:59:00,50.7,49.6,30.06,SSW,192,0.0,0.0,96,0.00,,,0.00,0.0,meteobridge,2013-05-07 10:59:00,
2013-05-07 06:00:00,50.7,49.6,30.06,SSW,192,0.0,0.0,96,0.00,,,0.00,0.0,meteobridge,2013-05-07 11:00:00,
2013-05-07 06:01:00,50.7,49.6,30.06,SSW,192,0.0,0.0,96,0.00,,,0.00,0.0,meteobridge,2013-05-07 11:01:00,
2013-05-07 06:04:00,50.5,49.5,30.06,SSW,192,0.0,0.0,96,0.00,,,0.00,0.0,meteobridge,2013-05-07 11:04:00,
2013-05-07 06:06:00,50.5,49.5,30.06,SSW,192,0.0,0.0,96,0.00,,,0.00,0.0,meteobridge,2013-05-07 11:06:00,
2013-05-07 06:09:00,50.5,49.5,30.06,SSW,192,0.0,0.0,96,0.00,,,0.00,0.0,meteobridge,2013-05-07 11:09:00,
2013-05-07 06:10:00,50.5,49.5,30.06,SSW,192,0.0,0.0,96,0.00,,,0.00,0.0,meteobridge,2013-05-07 11:10:00,
2013-05-07 06:11:00,50.5,49.5,30.06,SSW,192,0.0,0.0,96,0.00,,,0.00,0.0,meteobridge,2013-05-07 11:11:00,
2013-05-07 06:14:00,50.4,49.3,30.06,SSW,192,0.0,0.0,96,0.00,,,0.00,0.0,meteobridge,2013-05-07 11:14:00,
2013-05-07 06:15:00,50.4,49.3,30.06,SSW,192,0.0,0.0,96,0.00,,,0.00,0.0,meteobridge,2013-05-07 11:15:00,
2013-05-07 06:16:00,50.4,49.3,30.06,SSW,192,0.0,0.0,96,0.00,,,0.00,0.0,meteobridge,2013-05-07 11:16:00,
2013-05-07 06:18:00,50.4,49.3,30.06,SSW,192,0.0,0.0,96,0.00,,,0.00,0.0,meteobridge,2013-05-07 11:18:00,
2013-05-07 06:19:00,50.4,49.3,30.06,SSW,192,0.0,0.0,96,0.00,,,0.00,0.0,meteobridge,2013-05-07 11:19:00,
2013-05-07 06:21:00,50.4,49.3,30.06,SSW,192,0.0,0.0,96,0.00,,,0.00,0.0,meteobridge,2013-05-07 11:21:00,
2013-05-07 06:22:00,50.4,49.3,30.06,SSW,192,0.0,0.0,96,0.00,,,0.00,0.0,meteobridge,2013-05-07 11:22:00,
2013-05-07 06:23:00,50.4,49.3,30.06,SSW,192,0.0,0.0,96,0.00,,,0.00,0.0,meteobridge,2013-05-07 11:23:00,
2013-05-07 06:25:00,50.2,49.1,30.06,SSW,192,0.0,0.0,96,0.00,,,0.00,0.0,meteobridge,2013-05-07 11:25:00,
2013-05-07 06:27:00,50.2,49.1,30.06,SSW,192,0.0,0.0,96,0.00,,,0.00,0.0,meteobridge,2013-05-07 11:27:00,
2013-05-07 06:28:00,50.2,49.1,30.06,SSW,192,0.0,0.0,96,0.00,,,0.00,0.0,meteobridge,2013-05-07 11:28:00,
2013-05-07 06:29:00,50.0,48.9,30.06,SSW,192,0.0,0.0,96,0.00,,,0.00,0.0,meteobridge,2013-05-07 11:29:00,
2013-05-07 06:30:00,50.0,48.9,30.06,SSW,192,0.0,0.0,96,0.00,,,0.00,0.0,meteobridge,2013-05-07 11:30:00,
2013-05-07 06:32:00,50.0,48.9,30.06,SSW,192,0.0,0.0,96,0.00,,,0.00,0.0,meteobridge,2013-05-07 11:32:00,
2013-05-07 06:34:00,49.8,48.7,30.06,SSW,192,0.0,0.0,96,0.00,,,0.00,0.0,meteobridge,2013-05-07 11:34:00,
2013-05-07 06:35:00,49.8,48.7,30.06,SSW,192,0.0,0.0,96,0.00,,,0.00,0.0,meteobridge,2013-05-07 11:35:00,
2013-05-07 06:37:00,49.8,48.7,30.06,SSW,192,0.0,0.0,96,0.00,,,0.00,5.0,meteobridge,2013-05-07 11:37:00,
2013-05-07 06:38:00,49.8,48.7,30.06,SSW,192,0.0,0.0,96,0.00,,,0.00,5.0,meteobridge,2013-05-07 11:38:00,
2013-05-07 06:40:00,49.6,48.6,30.06,SSW,192,0.0,0.0,96,0.00,,,0.00,5.0,meteobridge,2013-05-07 11:40:00,
2013-05-07 06:41:00,49.8,48.7,30.06,SSW,192,0.0,0.0,96,0.00,,,0.00,5.0,meteobridge,2013-05-07 11:41:00,
2013-05-07 06:43:00,49.6,48.6,30.06,SSW,192,0.0,0.0,96,0.00,,,0.00,7.0,meteobridge,2013-05-07 11:43:00,
2013-05-07 06:44:00,49.6,48.6,30.06,SSW,192,0.0,0.0,96,0.00,,,0.00,7.0,meteobridge,2013-05-07 11:44:00,
2013-05-07 06:46:00,49.6,48.6,30.07,SSW,192,0.0,0.0,96,0.00,,,0.00,9.0,meteobridge,2013-05-07 11:46:00,
2013-05-07 06:47:00,49.6,48.6,30.07,SSW,192,0.0,0.0,96,0.00,,,0.00,9.0,meteobridge,2013-05-07 11:47:00,
2013-05-07 06:49:00,49.6,48.6,30.07,SSW,192,0.0,0.0,96,0.00,,,0.00,11.0,meteobridge,2013-05-07 11:49:00,
2013-05-07 06:51:00,49.6,48.6,30.07,SSW,192,0.0,0.0,96,0.00,,,0.00,12.0,meteobridge,2013-05-07 11:51:00,
2013-05-07 06:52:00,49.6,48.6,30.07,SSW,192,0.0,0.0,96,0.00,,,0.00,12.0,meteobridge,2013-05-07 11:52:00,
2013-05-07 06:54:00,49.6,48.6,30.07,SSW,192,0.0,0.0,96,0.00,,,0.00,16.0,meteobridge,2013-05-07 11:54:00,
2013-05-07 06:55:00,49.6,48.6,30.07,SSW,192,0.0,0.0,96,0.00,,,0.00,16.0,meteobridge,2013-05-07 11:55:00,
2013-05-07 06:56:00,49.6,48.6,30.07,SSW,192,0.0,0.0,96,0.00,,,0.00,16.0,meteobridge,2013-05-07 11:56:00,
2013-05-07 06:57:00,49.8,48.7,30.07,SSW,192,0.0,0.0,96,0.00,,,0.00,16.0,meteobridge,2013-05-07 11:57:00,
2013-05-07 06:59:00,49.8,48.7,30.08,SSW,192,0.0,0.0,96,0.00,,,0.00,18.0,meteobridge,2013-05-07 11:59:00,
2013-05-07 07:00:00,49.8,48.7,30.08,SSW,192,0.0,0.0,96,0.00,,,0.00,18.0,meteobridge,2013-05-07 12:00:00,
2013-05-07 07:02:00,49.8,48.7,30.08,SSW,192,0.0,0.0,96,0.00,,,0.00,18.0,meteobridge,2013-05-07 12:02:00,
2013-05-07 07:03:00,49.8,48.7,30.08,SSW,192,0.0,0.0,96,0.00,,,0.00,18.0,meteobridge,2013-05-07 12:03:00,
2013-05-07 07:05:00,49.8,48.7,30.07,SSW,192,0.0,0.0,96,0.00,,,0.00,19.0,meteobridge,2013-05-07 12:05:00,
2013-05-07 07:06:00,49.8,48.7,30.08,SSW,192,0.0,0.0,96,0.00,,,0.00,19.0,meteobridge,2013-05-07 12:06:00,
2013-05-07 07:07:00,49.8,48.7,30.07,SSW,192,0.0,0.0,96,0.00,,,0.00,19.0,meteobridge,2013-05-07 12:07:00,
2013-05-07 07:09:00,49.8,48.7,30.08,SSW,192,0.0,0.0,96,0.00,,,0.00,18.0,meteobridge,2013-05-07 12:09:00,
2013-05-07 07:10:00,49.8,48.7,30.08,SSW,192,0.0,0.0,96,0.00,,,0.00,19.0,meteobridge,2013-05-07 12:10:00,
2013-05-07 07:11:00,50.0,48.9,30.08,SSW,192,0.0,0.0,96,0.00,,,0.00,19.0,meteobridge,2013-05-07 12:11:00,
2013-05-07 07:12:00,50.0,48.9,30.08,SSW,192,0.0,0.0,96,0.00,,,0.00,19.0,meteobridge,2013-05-07 12:12:00,
2013-05-07 07:13:00,50.0,48.9,30.08,SSW,192,0.0,0.0,96,0.00,,,0.00,19.0,meteobridge,2013-05-07 12:13:00,
2013-05-07 07:15:00,50.2,49.1,30.08,SSW,192,0.0,0.0,96,0.00,,,0.00,21.0,meteobridge,2013-05-07 12:15:00,
2013-05-07 07:17:00,50.2,49.1,30.08,SSW,192,0.0,0.0,96,0.00,,,0.00,21.0,meteobridge,2013-05-07 12:17:00,
2013-05-07 07:18:00,50.2,49.1,30.08,SSW,192,0.0,0.0,96,0.00,,,0.00,21.0,meteobridge,2013-05-07 12:18:00,
2013-05-07 07:21:00,50.4,49.3,30.08,SSW,192,0.0,0.0,96,0.00,,,0.00,26.0,meteobridge,2013-05-07 12:21:00,
2013-05-07 07:22:00,50.4,49.3,30.08,SSW,192,0.0,0.0,96,0.00,,,0.00,26.0,meteobridge,2013-05-07 12:22:00,
2013-05-07 07:23:00,50.2,49.1,30.08,SSW,192,0.0,0.0,96,0.00,,,0.00,25.0,meteobridge,2013-05-07 12:23:00,
2013-05-07 07:27:00,50.4,49.3,30.08,SSW,192,0.0,0.0,96,0.00,,,0.00,30.0,meteobridge,2013-05-07 12:27:00,
2013-05-07 07:28:00,50.4,49.3,30.08,SSW,192,0.0,0.0,96,0.00,,,0.00,30.0,meteobridge,2013-05-07 12:28:00,
2013-05-07 07:29:00,50.4,49.3,30.08,SSW,192,0.0,0.0,96,0.00,,,0.00,28.0,meteobridge,2013-05-07 12:29:00,
2013-05-07 07:33:00,50.7,49.8,30.09,SSW,192,0.0,0.0,97,0.00,,,0.00,33.0,meteobridge,2013-05-07 12:33:00,
2013-05-07 07:34:00,50.7,49.8,30.09,SSW,192,0.0,0.0,97,0.00,,,0.00,33.0,meteobridge,2013-05-07 12:34:00,
2013-05-07 07:35:00,50.7,49.8,30.09,SSW,192,0.0,0.0,97,0.00,,,0.00,35.0,meteobridge,2013-05-07 12:35:00,
2013-05-07 07:39:00,51.3,50.4,30.09,SSW,192,0.0,0.0,97,0.00,,,0.00,62.0,meteobridge,2013-05-07 12:39:00,
2013-05-07 07:40:00,51.4,50.5,30.09,SSW,192,0.0,0.0,97,0.00,,,0.00,63.0,meteobridge,2013-05-07 12:40:00,
2013-05-07 07:41:00,51.4,50.5,30.09,SSW,192,0.0,0.0,97,0.00,,,0.00,63.0,meteobridge,2013-05-07 12:41:00,
2013-05-07 07:43:00,51.8,50.9,30.09,SSW,192,0.0,0.0,97,0.00,,,0.00,42.0,meteobridge,2013-05-07 12:43:00,
2013-05-07 07:44:00,51.8,50.9,30.09,SSW,192,0.0,0.0,97,0.00,,,0.00,37.0,meteobridge,2013-05-07 12:44:00,
2013-05-07 07:45:00,52.0,51.1,30.09,SSW,192,0.0,0.0,97,0.00,,,0.00,37.0,meteobridge,2013-05-07 12:45:00,
2013-05-07 07:46:00,52.2,51.3,30.09,SSW,192,0.0,0.0,97,0.00,,,0.00,37.0,meteobridge,2013-05-07 12:46:00,
2013-05-07 07:47:00,52.2,51.3,30.09,SSW,192,0.0,0.0,97,0.00,,,0.00,39.0,meteobridge,2013-05-07 12:47:00,
2013-05-07 07:49:00,52.5,51.6,30.09,SSW,192,0.0,0.0,97,0.00,,,0.00,39.0,meteobridge,2013-05-07 12:49:00,
2013-05-07 07:51:00,52.9,52.0,30.09,SSW,192,0.0,0.0,97,0.00,,,0.00,42.0,meteobridge,2013-05-07 12:51:00,
2013-05-07 07:52:00,52.9,52.0,30.09,SSW,192,0.0,0.0,97,0.00,,,0.00,56.0,meteobridge,2013-05-07 12:52:00,
2013-05-07 07:55:00,53.2,52.3,30.09,SSW,192,0.0,0.0,97,0.00,,,0.00,56.0,meteobridge,2013-05-07 12:55:00,
2013-05-07 07:56:00,53.4,52.5,30.09,SSW,192,0.0,0.0,97,0.00,,,0.00,53.0,meteobridge,2013-05-07 12:56:00,
2013-05-07 07:57:00,53.8,52.9,30.09,SSW,192,0.0,0.0,97,0.00,,,0.00,62.0,meteobridge,2013-05-07 12:57:00,
2013-05-07 08:01:00,54.3,53.4,30.09,SSW,192,0.0,0.0,97,0.00,,,0.00,51.0,meteobridge,2013-05-07 13:01:00,
2013-05-07 08:02:00,54.9,54.0,30.09,SSW,192,0.0,0.0,97,0.00,,,0.00,46.0,meteobridge,2013-05-07 13:02:00,
2013-05-07 08:04:00,55.2,54.3,30.09,SSW,192,0.0,0.0,97,0.00,,,0.00,44.0,meteobridge,2013-05-07 13:04:00,
2013-05-07 08:06:00,55.8,54.9,30.09,SSW,192,0.0,0.0,97,0.00,,,0.00,51.0,meteobridge,2013-05-07 13:06:00,
2013-05-07 08:08:00,55.9,55.0,30.09,SSW,192,0.0,0.0,97,0.00,,,0.00,56.0,meteobridge,2013-05-07 13:08:00,
2013-05-07 08:09:00,56.1,55.0,30.09,SSW,192,0.0,0.0,96,0.00,,,0.00,53.0,meteobridge,2013-05-07 13:09:00,
2013-05-07 08:12:00,56.7,55.6,30.09,SSW,192,0.0,0.0,96,0.00,,,0.00,53.0,meteobridge,2013-05-07 13:12:00,
2013-05-07 08:13:00,56.7,55.6,30.09,SSW,192,0.0,0.0,96,0.00,,,0.00,51.0,meteobridge,2013-05-07 13:13:00,
2013-05-07 08:14:00,56.8,55.8,30.09,SSW,192,0.0,0.0,96,0.00,,,0.00,62.0,meteobridge,2013-05-07 13:14:00,
2013-05-07 08:15:00,57.2,56.1,30.09,SSW,192,0.0,0.0,96,0.00,,,0.00,127.0,meteobridge,2013-05-07 13:15:00,
2013-05-07 08:17:00,57.6,56.5,30.09,SSW,192,0.0,0.0,96,0.00,,,0.00,239.0,meteobridge,2013-05-07 13:17:00,
2013-05-07 08:18:00,57.7,56.7,30.09,SSW,192,0.0,0.0,96,0.00,,,0.00,239.0,meteobridge,2013-05-07 13:18:00,
2013-05-07 08:19:00,57.9,56.8,30.09,SSW,192,0.0,0.0,96,0.00,,,0.00,285.0,meteobridge,2013-05-07 13:19:00,
2013-05-07 08:22:00,58.8,57.7,30.09,SSW,192,0.0,0.0,96,0.00,,,0.00,299.0,meteobridge,2013-05-07 13:22:00,
2013-05-07 08:23:00,59.2,57.7,30.09,SSW,192,0.0,0.0,95,0.00,,,0.00,302.0,meteobridge,2013-05-07 13:23:00,
2013-05-07 08:24:00,59.4,57.9,30.09,SSW,192,0.0,0.0,95,0.00,,,0.00,253.0,meteobridge,2013-05-07 13:24:00,
2013-05-07 08:27:00,60.3,58.5,30.09,SSW,192,0.0,0.0,94,0.00,,,0.00,120.0,meteobridge,2013-05-07 13:27:00,
2013-05-07 08:29:00,60.8,59.0,30.09,SSW,192,0.0,0.0,94,0.00,,,0.00,156.0,meteobridge,2013-05-07 13:29:00,
2013-05-07 08:30:00,61.0,59.0,30.09,SSW,192,0.0,0.0,93,0.00,,,0.00,141.0,meteobridge,2013-05-07 13:30:00,
2013-05-07 08:32:00,61.5,59.2,30.09,SSW,192,0.0,0.0,92,0.00,,,0.00,297.0,meteobridge,2013-05-07 13:32:00,
2013-05-07 08:33:00,61.9,59.2,30.09,SSW,192,0.0,0.0,91,0.00,,,0.00,283.0,meteobridge,2013-05-07 13:33:00,
2013-05-07 08:34:00,62.2,59.5,30.09,SSW,192,0.0,0.0,91,0.00,,,0.00,285.0,meteobridge,2013-05-07 13:34:00,
2013-05-07 08:36:00,62.6,59.5,30.09,SSW,192,0.0,0.0,90,0.00,,,0.00,350.0,meteobridge,2013-05-07 13:36:00,
2013-05-07 08:37:00,63.0,59.7,30.09,SSW,192,0.0,0.0,89,0.00,,,0.00,359.0,meteobridge,2013-05-07 13:37:00,
2013-05-07 08:38:00,63.3,59.7,30.09,SSW,192,0.0,0.0,88,0.00,,,0.00,362.0,meteobridge,2013-05-07 13:38:00,
2013-05-07 08:40:00,63.9,59.9,30.09,SSW,192,0.0,0.0,87,0.00,,,0.00,371.0,meteobridge,2013-05-07 13:40:00,
2013-05-07 08:41:00,64.2,59.9,30.09,SSW,192,0.0,0.0,86,0.00,,,0.00,380.0,meteobridge,2013-05-07 13:41:00,
2013-05-07 08:43:00,64.6,59.9,30.09,SSW,192,0.0,0.9,85,0.00,,,0.00,394.0,meteobridge,2013-05-07 13:43:00,
2013-05-07 08:44:00,64.9,59.9,30.09,SSW,192,0.0,0.0,84,0.00,,,0.00,394.0,meteobridge,2013-05-07 13:44:00,
2013-05-07 08:46:00,65.3,60.1,30.09,SSW,206,0.9,2.0,83,0.00,,,0.00,408.0,meteobridge,2013-05-07 13:46:00,
2013-05-07 08:49:00,65.8,59.5,30.09,NW,310,0.0,2.0,80,0.00,,,0.00,387.0,meteobridge,2013-05-07 13:49:00,
2013-05-07 08:50:00,66.0,59.7,30.09,NW,312,2.0,2.0,80,0.00,,,0.00,346.0,meteobridge,2013-05-07 13:50:00,
2013-05-07 08:51:00,66.4,60.1,30.09,NW,310,2.0,2.9,80,0.00,,,0.00,341.0,meteobridge,2013-05-07 13:51:00,
2013-05-07 08:52:00,66.6,60.3,30.09,NW,310,0.9,2.9,80,0.00,,,0.00,378.0,meteobridge,2013-05-07 13:52:00,
2013-05-07 08:55:00,67.3,59.9,30.09,NW,310,0.0,0.9,77,0.00,,,0.00,445.0,meteobridge,2013-05-07 13:55:00,
2013-05-07 08:56:00,67.3,59.9,30.09,NW,310,0.0,0.9,77,0.00,,,0.00,448.0,meteobridge,2013-05-07 13:56:00,
2013-05-07 08:57:00,67.5,60.1,30.09,NW,310,0.0,0.9,77,0.00,,,0.00,452.0,meteobridge,2013-05-07 13:57:00,
2013-05-07 09:02:00,67.6,60.3,30.09,NW,309,0.0,0.9,77,0.00,,,0.00,466.0,meteobridge,2013-05-07 14:02:00,
2013-05-07 09:03:00,67.8,59.9,30.09,NW,309,0.0,0.9,76,0.00,,,0.00,473.0,meteobridge,2013-05-07 14:03:00,
2013-05-07 09:04:00,68.2,60.3,30.09,NW,309,0.0,0.9,76,0.00,,,0.00,476.0,meteobridge,2013-05-07 14:04:00,
2013-05-07 09:07:00,68.9,59.9,30.09,NW,309,0.9,0.9,73,0.00,,,0.00,490.0,meteobridge,2013-05-07 14:07:00,
2013-05-07 09:08:00,68.9,59.9,30.09,NW,309,0.0,0.9,73,0.00,,,0.00,490.0,meteobridge,2013-05-07 14:08:00,
2013-05-07 09:09:00,69.3,60.3,30.09,NW,309,0.0,0.9,73,0.00,,,0.00,492.0,meteobridge,2013-05-07 14:09:00,
2013-05-07 09:10:00,69.3,60.6,30.09,NW,309,0.0,0.9,74,0.00,,,0.00,499.0,meteobridge,2013-05-07 14:10:00,
2013-05-07 09:13:00,69.6,60.3,30.09,NW,309,0.0,0.0,72,0.00,,,0.00,510.0,meteobridge,2013-05-07 14:13:00,
2013-05-07 09:15:00,70.3,60.4,30.09,NW,309,0.0,0.0,71,0.00,,,0.00,519.0,meteobridge,2013-05-07 14:15:00,
2013-05-07 09:16:00,70.3,61.3,30.09,NW,309,0.0,0.0,73,0.00,,,0.00,522.0,meteobridge,2013-05-07 14:16:00,
2013-05-07 09:18:00,70.3,60.8,30.09,NW,309,0.0,2.0,72,0.00,,,0.00,529.0,meteobridge,2013-05-07 14:18:00,
2013-05-07 09:19:00,70.3,60.4,30.09,NW,309,0.0,2.0,71,0.00,,,0.00,529.0,meteobridge,2013-05-07 14:19:00,
2013-05-07 09:20:00,70.5,61.0,30.09,NW,309,0.0,0.9,72,0.00,,,0.00,531.0,meteobridge,2013-05-07 14:20:00,
2013-05-07 09:21:00,70.9,61.3,30.09,NW,309,0.0,0.9,72,0.00,,,0.00,541.0,meteobridge,2013-05-07 14:21:00,
2013-05-07 09:24:00,71.4,60.8,30.09,NW,309,0.0,0.9,69,0.00,,,0.00,547.0,meteobridge,2013-05-07 14:24:00,
2013-05-07 09:25:00,71.8,60.6,30.09,NW,309,0.9,0.9,68,0.00,,,0.00,552.0,meteobridge,2013-05-07 14:25:00,
2013-05-07 09:27:00,72.3,61.2,30.09,NW,309,0.0,0.9,68,0.00,,,0.00,559.0,meteobridge,2013-05-07 14:27:00,
2013-05-07 09:30:00,71.4,59.5,30.09,NW,309,0.0,2.0,66,0.00,,,0.00,566.0,meteobridge,2013-05-07 14:30:00,
2013-05-07 09:31:00,71.4,60.8,30.09,NW,309,0.9,0.9,69,0.00,,,0.00,568.0,meteobridge,2013-05-07 14:31:00,
2013-05-07 09:32:00,72.0,60.4,30.09,NW,309,0.0,0.9,67,0.00,,,0.00,575.0,meteobridge,2013-05-07 14:32:00,
2013-05-07 09:35:00,73.0,61.5,30.09,NW,309,0.0,0.0,67,0.00,,,0.00,584.0,meteobridge,2013-05-07 14:35:00,
2013-05-07 09:36:00,73.2,60.8,30.09,NW,309,0.0,0.0,65,0.00,,,0.00,589.0,meteobridge,2013-05-07 14:36:00,
2013-05-07 09:38:00,73.2,62.1,30.09,NW,309,0.0,0.9,68,0.00,,,0.00,596.0,meteobridge,2013-05-07 14:38:00,
2013-05-07 09:40:00,73.2,60.8,30.09,NW,309,0.0,0.9,65,0.00,,,0.00,599.0,meteobridge,2013-05-07 14:40:00,
2013-05-07 09:41:00,73.8,61.7,30.09,NW,309,0.0,0.9,66,0.00,,,0.00,606.0,meteobridge,2013-05-07 14:41:00,
2013-05-07 09:43:00,74.1,60.8,30.09,NW,309,0.0,0.0,63,0.00,,,0.00,612.0,meteobridge,2013-05-07 14:43:00,
2013-05-07 09:46:00,74.7,62.6,30.09,NW,309,0.0,0.9,66,0.00,,,0.00,621.0,meteobridge,2013-05-07 14:46:00,
2013-05-07 09:47:00,74.8,62.8,30.09,NW,309,0.0,0.9,66,0.00,,,0.00,626.0,meteobridge,2013-05-07 14:47:00,
2013-05-07 09:48:00,74.7,60.8,30.09,NW,309,0.0,0.0,62,0.00,,,0.00,628.0,meteobridge,2013-05-07 14:48:00,
2013-05-07 09:51:00,75.2,59.9,30.09,NW,309,0.0,0.9,59,0.00,,,0.00,638.0,meteobridge,2013-05-07 14:51:00,
2013-05-07 09:52:00,75.0,60.6,30.09,NW,309,0.0,0.9,61,0.00,,,0.00,642.0,meteobridge,2013-05-07 14:52:00,
2013-05-07 09:53:00,75.4,61.0,30.09,NW,309,0.0,0.0,61,0.00,,,0.00,645.0,meteobridge,2013-05-07 14:53:00,
2013-05-07 09:54:00,75.4,60.4,30.09,NW,309,0.0,0.0,60,0.00,,,0.00,650.0,meteobridge,2013-05-07 14:54:00,
2013-05-07 09:57:00,75.6,60.3,30.09,NW,309,0.0,2.0,59,0.00,,,0.00,663.0,meteobridge,2013-05-07 14:57:00,
2013-05-07 09:58:00,75.0,59.2,30.09,NW,309,0.0,2.0,58,0.00,,,0.00,664.0,meteobridge,2013-05-07 14:58:00,
2013-05-07 09:59:00,74.8,58.6,30.09,NW,309,0.0,0.9,57,0.00,,,0.00,664.0,meteobridge,2013-05-07 14:59:00,
2013-05-07 10:03:00,75.0,61.5,30.09,NW,309,0.0,0.0,63,0.00,,,0.00,675.0,meteobridge,2013-05-07 15:03:00,
2013-05-07 10:04:00,75.4,59.5,30.09,NW,310,0.0,0.9,58,0.00,,,0.00,680.0,meteobridge,2013-05-07 15:04:00,
2013-05-07 10:05:00,75.6,59.7,30.09,NW,310,0.0,0.9,58,0.00,,,0.00,680.0,meteobridge,2013-05-07 15:05:00,
2013-05-07 10:08:00,75.7,59.0,30.09,NW,310,0.0,2.0,56,0.00,,,0.00,698.0,meteobridge,2013-05-07 15:08:00,
2013-05-07 10:09:00,75.7,59.9,30.09,NW,310,0.0,0.9,58,0.00,,,0.00,698.0,meteobridge,2013-05-07 15:09:00,
2013-05-07 10:11:00,75.9,59.5,30.09,NW,310,0.0,0.9,57,0.00,,,0.00,698.0,meteobridge,2013-05-07 15:11:00,
2013-05-07 10:12:00,76.6,60.8,30.09,NW,310,0.0,0.0,58,0.00,,,0.00,701.0,meteobridge,2013-05-07 15:12:00,
2013-05-07 10:14:00,77.2,57.0,30.09,NW,310,2.0,2.0,50,0.00,,,0.00,708.0,meteobridge,2013-05-07 15:14:00,
2013-05-07 10:17:00,76.3,58.5,30.09,NW,310,2.0,2.0,54,0.00,,,0.00,717.0,meteobridge,2013-05-07 15:17:00,
2013-05-07 10:19:00,75.9,57.6,30.09,SSE,159,2.0,2.9,53,0.00,,,0.00,726.0,meteobridge,2013-05-07 15:19:00,
2013-05-07 10:21:00,75.6,57.2,30.09,SSE,159,0.0,2.9,53,0.00,,,0.00,729.0,meteobridge,2013-05-07 15:21:00,
2013-05-07 10:22:00,75.6,57.7,30.09,SSE,159,2.0,2.0,54,0.00,,,0.00,731.0,meteobridge,2013-05-07 15:22:00,
2013-05-07 10:25:00,75.7,58.5,30.09,SSE,159,0.0,0.9,55,0.00,,,0.00,742.0,meteobridge,2013-05-07 15:25:00,
2013-05-07 10:27:00,76.5,59.2,30.09,SSE,159,0.0,0.9,55,0.00,,,0.00,745.0,meteobridge,2013-05-07 15:27:00,
2013-05-07 10:28:00,77.2,58.3,30.09,SSE,159,0.0,0.9,52,0.00,,,0.00,752.0,meteobridge,2013-05-07 15:28:00,
2013-05-07 10:29:00,77.4,58.3,30.09,SSE,159,0.0,0.0,52,0.00,,,0.00,752.0,meteobridge,2013-05-07 15:29:00,
2013-05-07 10:31:00,77.9,59.4,30.09,South,191,4.0,4.9,53,0.00,,,0.00,761.0,meteobridge,2013-05-07 15:31:00,
2013-05-07 10:32:00,77.7,59.2,30.09,South,190,2.0,4.9,53,0.00,,,0.00,761.0,meteobridge,2013-05-07 15:32:00,
2013-05-07 10:33:00,77.4,57.2,30.09,South,190,0.0,4.9,50,0.00,,,0.00,766.0,meteobridge,2013-05-07 15:33:00,
2013-05-07 10:34:00,77.5,58.5,30.09,South,190,0.0,2.0,52,0.00,,,0.00,770.0,meteobridge,2013-05-07 15:34:00,
2013-05-07 10:37:00,77.4,57.2,30.09,SSW,193,0.0,2.9,50,0.00,,,0.00,777.0,meteobridge,2013-05-07 15:37:00,
2013-05-07 10:38:00,77.4,57.2,30.09,SSW,193,0.0,2.9,50,0.00,,,0.00,777.0,meteobridge,2013-05-07 15:38:00,
2013-05-07 10:39:00,77.0,57.0,30.09,SSE,159,2.9,2.9,50,0.00,,,0.00,780.0,meteobridge,2013-05-07 15:39:00,
2013-05-07 10:43:00,77.9,60.4,30.09,SSE,159,0.0,0.9,55,0.00,,,0.00,788.0,meteobridge,2013-05-07 15:43:00,
2013-05-07 10:44:00,78.6,58.5,30.09,SSE,159,0.0,0.9,50,0.00,,,0.00,791.0,meteobridge,2013-05-07 15:44:00,
2013-05-07 10:45:00,79.2,59.5,30.09,SSE,159,0.0,0.9,51,0.00,,,0.00,793.0,meteobridge,2013-05-07 15:45:00,
2013-05-07 10:46:00,79.2,58.3,30.09,SSE,159,0.0,0.9,49,0.00,,,0.00,795.0,meteobridge,2013-05-07 15:46:00,
2013-05-07 10:48:00,79.9,60.6,30.09,SSE,159,0.0,0.0,52,0.00,,,0.00,798.0,meteobridge,2013-05-07 15:48:00,
2013-05-07 10:49:00,80.2,60.4,30.09,SSE,159,0.0,0.9,51,0.00,,,0.00,802.0,meteobridge,2013-05-07 15:49:00,
2013-05-07 10:50:00,80.2,58.8,30.10,SSE,159,0.0,0.9,48,0.00,,,0.00,805.0,meteobridge,2013-05-07 15:50:00,
2013-05-07 10:51:00,79.9,58.5,30.09,SW,221,0.9,0.9,48,0.00,,,0.00,803.0,meteobridge,2013-05-07 15:51:00,
2013-05-07 10:54:00,79.5,58.6,30.09,WNW,289,2.0,4.0,49,0.00,,,0.00,812.0,meteobridge,2013-05-07 15:54:00,
2013-05-07 10:55:00,79.0,58.1,30.10,WNW,300,0.9,4.0,49,0.00,,,0.00,814.0,meteobridge,2013-05-07 15:55:00,
2013-05-07 10:56:00,79.0,58.1,30.09,North,349,2.0,4.0,49,0.00,,,0.00,816.0,meteobridge,2013-05-07 15:56:00,
2013-05-07 10:57:00,79.2,57.7,30.09,North,350,4.0,4.0,48,0.00,,,0.00,817.0,meteobridge,2013-05-07 15:57:00,
2013-05-07 10:59:00,80.2,59.9,30.09,NNW,347,0.9,2.9,50,0.00,,,0.00,823.0,meteobridge,2013-05-07 15:59:00,
2013-05-07 11:00:00,80.2,57.0,30.09,NNW,347,0.9,2.9,45,0.00,,,0.00,824.0,meteobridge,2013-05-07 16:00:00,
2013-05-07 11:01:00,81.0,62.2,30.09,NNW,347,0.0,2.9,53,0.00,,,0.00,826.0,meteobridge,2013-05-07 16:01:00,
2013-05-07 11:03:00,81.3,57.4,30.09,South,183,2.9,4.9,44,0.00,,,0.00,830.0,meteobridge,2013-05-07 16:03:00,
2013-05-07 11:04:00,80.2,57.0,30.09,ESE,119,0.9,4.9,45,0.00,,,0.00,831.0,meteobridge,2013-05-07 16:04:00,
2013-05-07 11:05:00,80.2,57.0,30.09,ESE,119,0.0,2.0,45,0.00,,,0.00,831.0,meteobridge,2013-05-07 16:05:00,
2013-05-07 11:06:00,81.0,58.3,30.09,ESE,119,0.0,2.0,46,0.00,,,0.00,835.0,meteobridge,2013-05-07 16:06:00,
2013-05-07 11:07:00,81.0,58.3,30.09,ESE,119,0.0,0.9,46,0.00,,,0.00,835.0,meteobridge,2013-05-07 16:07:00,
2013-05-07 11:08:00,81.1,59.5,30.09,South,189,2.9,2.9,48,0.00,,,0.00,837.0,meteobridge,2013-05-07 16:08:00,
2013-05-07 11:10:00,80.1,56.8,30.09,South,190,0.9,2.9,45,0.00,,,0.00,840.0,meteobridge,2013-05-07 16:10:00,
2013-05-07 11:12:00,79.2,57.2,30.10,South,180,0.0,2.9,47,0.00,,,0.00,846.0,meteobridge,2013-05-07 16:12:00,
2013-05-07 11:14:00,79.2,57.7,30.09,South,180,0.0,2.0,48,0.00,,,0.00,849.0,meteobridge,2013-05-07 16:14:00,
2013-05-07 11:16:00,80.2,59.4,30.09,South,186,0.9,2.0,49,0.00,,,0.00,849.0,meteobridge,2013-05-07 16:16:00,
2013-05-07 11:17:00,80.2,57.6,30.09,SSW,211,0.0,2.0,46,0.00,,,0.00,856.0,meteobridge,2013-05-07 16:17:00,
2013-05-07 11:20:00,81.3,59.2,30.09,NNW,329,4.0,4.9,47,0.00,,,0.00,860.0,meteobridge,2013-05-07 16:20:00,
2013-05-07 11:21:00,81.5,58.6,30.09,NNW,347,2.0,4.9,46,0.00,,,0.00,867.0,meteobridge,2013-05-07 16:21:00,
2013-05-07 11:22:00,81.9,59.0,30.09,NNW,348,0.0,2.9,46,0.00,,,0.00,867.0,meteobridge,2013-05-07 16:22:00,
2013-05-07 11:26:00,82.2,57.6,30.09,NNW,348,2.0,2.0,43,0.00,,,0.00,875.0,meteobridge,2013-05-07 16:26:00,
2013-05-07 11:28:00,82.2,57.6,30.09,NNW,348,0.9,2.9,43,0.00,,,0.00,875.0,meteobridge,2013-05-07 16:28:00,
2013-05-07 11:31:00,81.1,60.1,30.09,North,350,0.0,2.0,49,0.00,,,0.00,881.0,meteobridge,2013-05-07 16:31:00,
2013-05-07 11:32:00,81.3,60.3,30.09,North,350,0.9,2.0,49,0.00,,,0.00,882.0,meteobridge,2013-05-07 16:32:00,
2013-05-07 11:33:00,81.3,59.2,30.09,NW,312,4.0,4.0,47,0.00,,,0.00,882.0,meteobridge,2013-05-07 16:33:00,
2013-05-07 11:37:00,80.2,56.3,30.09,NW,309,0.9,4.0,44,0.00,,,0.00,888.0,meteobridge,2013-05-07 16:37:00,
2013-05-07 11:38:00,79.0,56.5,30.09,NW,309,0.9,2.0,46,0.00,,,0.00,884.0,meteobridge,2013-05-07 16:38:00,
2013-05-07 11:39:00,79.0,57.6,30.09,NW,309,0.0,0.9,48,0.00,,,0.00,884.0,meteobridge,2013-05-07 16:39:00,
2013-05-07 11:42:00,79.5,57.6,30.09,NW,309,0.9,2.0,47,0.00,,,0.00,888.0,meteobridge,2013-05-07 16:42:00,
2013-05-07 11:43:00,80.6,57.9,30.09,North,355,0.9,2.9,46,0.00,,,0.00,891.0,meteobridge,2013-05-07 16:43:00,
2013-05-07 11:44:00,81.5,59.4,30.09,North,355,0.0,2.9,47,0.00,,,0.00,900.0,meteobridge,2013-05-07 16:44:00,
2013-05-07 11:45:00,81.9,59.7,30.09,North,355,0.0,2.9,47,0.00,,,0.00,900.0,meteobridge,2013-05-07 16:45:00,
2013-05-07 11:47:00,82.0,57.9,30.09,SE,139,2.0,4.0,44,0.00,,,0.00,905.0,meteobridge,2013-05-07 16:47:00,
2013-05-07 11:49:00,82.4,59.0,30.09,SSE,150,2.0,2.9,45,0.00,,,0.00,912.0,meteobridge,2013-05-07 16:49:00,
2013-05-07 11:50:00,82.2,58.8,30.09,SSE,150,0.9,2.9,45,0.00,,,0.00,912.0,meteobridge,2013-05-07 16:50:00,
2013-05-07 11:51:00,82.0,57.9,30.09,NW,321,0.9,4.0,44,0.00,,,0.00,916.0,meteobridge,2013-05-07 16:51:00,
2013-05-07 11:53:00,81.7,58.3,30.09,NW,317,0.0,2.0,45,0.00,,,0.00,921.0,meteobridge,2013-05-07 16:53:00,
2013-05-07 11:55:00,82.0,57.9,30.09,SSE,157,0.0,4.0,44,0.00,,,0.00,923.0,meteobridge,2013-05-07 16:55:00,
2013-05-07 11:56:00,82.2,59.9,30.09,South,173,0.9,4.0,47,0.00,,,0.00,928.0,meteobridge,2013-05-07 16:56:00,
2013-05-07 11:57:00,82.2,58.8,30.09,East,95,4.9,4.9,45,0.00,,,0.00,928.0,meteobridge,2013-05-07 16:57:00,
2013-05-07 11:58:00,82.2,59.4,30.09,SE,133,4.9,6.0,46,0.00,,,0.00,928.0,meteobridge,2013-05-07 16:58:00,
2013-05-07 12:00:00,81.5,56.8,30.09,SE,130,2.0,6.0,43,0.00,,,0.00,930.0,meteobridge,2013-05-07 17:00:00,
2013-05-07 12:01:00,81.3,59.2,30.09,SE,145,4.9,6.0,47,0.00,,,0.00,932.0,meteobridge,2013-05-07 17:01:00,
2013-05-07 12:02:00,81.0,57.0,30.09,SE,139,0.0,6.0,44,0.00,,,0.00,933.0,meteobridge,2013-05-07 17:02:00,
2013-05-07 12:03:00,81.0,58.3,30.09,SE,145,4.0,6.0,46,0.00,,,0.00,932.0,meteobridge,2013-05-07 17:03:00,
2013-05-07 12:05:00,80.8,58.6,30.09,WNW,282,0.0,2.9,47,0.00,,,0.00,932.0,meteobridge,2013-05-07 17:05:00,
2013-05-07 12:06:00,81.0,58.3,30.09,NE,38,0.0,2.9,46,0.00,,,0.00,939.0,meteobridge,2013-05-07 17:06:00,
2013-05-07 12:07:00,81.3,58.6,30.08,South,173,4.0,4.0,46,0.00,,,0.00,939.0,meteobridge,2013-05-07 17:07:00,
2013-05-07 12:08:00,82.0,58.6,30.08,South,171,0.0,4.0,45,0.00,,,0.00,937.0,meteobridge,2013-05-07 17:08:00,
2013-05-07 12:10:00,82.6,60.3,30.08,SSW,197,4.0,4.9,47,0.00,,,0.00,940.0,meteobridge,2013-05-07 17:10:00,
2013-05-07 12:11:00,82.2,58.1,30.08,West,259,4.0,4.9,44,0.00,,,0.00,947.0,meteobridge,2013-05-07 17:11:00,
2013-05-07 12:12:00,82.2,58.1,30.08,West,269,2.9,4.9,44,0.00,,,0.00,947.0,meteobridge,2013-05-07 17:12:00,
2013-05-07 12:14:00,81.5,56.8,30.08,NW,319,2.0,2.0,43,0.00,,,0.00,947.0,meteobridge,2013-05-07 17:14:00,
2013-05-07 12:15:00,81.7,57.0,30.08,NW,323,0.0,2.0,43,0.00,,,0.00,947.0,meteobridge,2013-05-07 17:15:00,
2013-05-07 12:17:00,82.2,57.6,30.08,NNW,333,2.9,4.9,43,0.00,,,0.00,953.0,meteobridge,2013-05-07 17:17:00,
2013-05-07 12:20:00,81.9,56.5,30.08,NNW,333,0.9,2.0,42,0.00,,,0.00,949.0,meteobridge,2013-05-07 17:20:00,
2013-05-07 12:22:00,82.6,59.0,30.08,ESE,121,2.9,2.9,45,0.00,,,0.00,953.0,meteobridge,2013-05-07 17:22:00,
2013-05-07 12:25:00,82.2,59.4,30.08,South,184,0.9,4.0,46,0.00,,,0.00,951.0,meteobridge,2013-05-07 17:25:00,
2013-05-07 12:26:00,82.9,59.4,30.08,South,180,0.9,0.9,45,0.00,,,0.00,951.0,meteobridge,2013-05-07 17:26:00,
2013-05-07 12:27:00,83.5,59.9,30.07,South,176,0.0,0.9,45,0.00,,,0.00,942.0,meteobridge,2013-05-07 17:27:00,
2013-05-07 12:28:00,83.8,59.5,30.07,ESE,115,0.0,0.9,44,0.00,,,0.00,951.0,meteobridge,2013-05-07 17:28:00,
2013-05-07 12:30:00,82.9,57.6,30.07,East,101,0.0,2.0,42,0.00,,,0.00,958.0,meteobridge,2013-05-07 17:30:00,
2013-05-07 12:31:00,82.8,57.9,30.07,SW,214,2.9,2.9,43,0.00,,,0.00,958.0,meteobridge,2013-05-07 17:31:00,
2013-05-07 12:32:00,82.8,58.6,30.07,West,281,4.9,4.9,44,0.00,,,0.00,958.0,meteobridge,2013-05-07 17:32:00,
2013-05-07 12:33:00,82.6,57.2,30.07,SSW,192,2.0,4.9,42,0.00,,,0.00,958.0,meteobridge,2013-05-07 17:33:00,
2013-05-07 12:36:00,82.0,55.9,30.07,SW,236,0.0,4.0,41,0.00,,,0.00,960.0,meteobridge,2013-05-07 17:36:00,
2013-05-07 12:37:00,82.0,56.7,30.07,WNW,296,2.0,4.9,42,0.00,,,0.00,962.0,meteobridge,2013-05-07 17:37:00,
2013-05-07 12:38:00,82.0,56.7,30.07,WSW,252,4.0,6.0,42,0.00,,,0.00,962.0,meteobridge,2013-05-07 17:38:00,
2013-05-07 12:41:00,81.0,56.3,30.07,South,181,2.0,2.9,43,0.00,,,0.00,967.0,meteobridge,2013-05-07 17:41:00,
2013-05-07 12:42:00,81.1,56.5,30.07,SW,225,2.9,4.0,43,0.00,,,0.00,965.0,meteobridge,2013-05-07 17:42:00,
2013-05-07 12:43:00,81.0,55.0,30.07,West,270,2.0,4.0,41,0.00,,,0.00,969.0,meteobridge,2013-05-07 17:43:00,
2013-05-07 12:46:00,81.5,56.1,30.06,NW,310,2.0,6.0,42,0.00,,,0.00,965.0,meteobridge,2013-05-07 17:46:00,
2013-05-07 12:48:00,82.0,55.4,30.06,NNW,340,4.0,8.9,40,0.00,,,0.00,967.0,meteobridge,2013-05-07 17:48:00,
2013-05-07 12:49:00,82.2,55.6,30.06,NNW,345,2.9,8.9,40,0.00,,,0.00,967.0,meteobridge,2013-05-07 17:49:00,
2013-05-07 12:52:00,83.8,59.0,30.06,NNW,346,0.9,4.0,43,0.00,,,0.00,963.0,meteobridge,2013-05-07 17:52:00,
2013-05-07 12:54:00,83.8,59.5,30.06,SSW,198,0.9,2.9,44,0.00,,,0.00,963.0,meteobridge,2013-05-07 17:54:00,
2013-05-07 12:55:00,83.3,57.7,30.06,SW,215,0.0,2.9,42,0.00,,,0.00,965.0,meteobridge,2013-05-07 17:55:00,
2013-05-07 12:58:00,84.4,58.1,30.06,SE,144,0.9,4.9,41,0.00,,,0.00,965.0,meteobridge,2013-05-07 17:58:00,
2013-05-07 12:59:00,84.4,58.1,30.06,SE,146,0.0,4.9,41,0.00,,,0.00,965.0,meteobridge,2013-05-07 17:59:00,
2013-05-07 13:00:00,83.5,56.7,30.06,SSE,157,2.0,2.0,40,0.00,,,0.00,963.0,meteobridge,2013-05-07 18:00:00,
2013-05-07 13:04:00,84.7,59.2,30.06,South,172,0.0,0.9,42,0.00,,,0.00,962.0,meteobridge,2013-05-07 18:04:00,
2013-05-07 13:05:00,84.9,57.9,30.06,South,172,0.0,0.9,40,0.00,,,0.00,962.0,meteobridge,2013-05-07 18:05:00,
2013-05-07 13:06:00,85.3,58.3,30.06,South,172,0.9,0.9,40,0.00,,,0.00,963.0,meteobridge,2013-05-07 18:06:00,
2013-05-07 13:09:00,84.7,57.0,30.05,North,355,0.9,4.9,39,0.00,,,0.00,960.0,meteobridge,2013-05-07 18:09:00,
2013-05-07 13:10:00,84.9,57.2,30.05,NNE,13,2.0,4.9,39,0.00,,,0.00,962.0,meteobridge,2013-05-07 18:10:00,
2013-05-07 13:12:00,85.8,57.2,30.05,SW,236,2.9,2.9,38,0.00,,,0.00,960.0,meteobridge,2013-05-07 18:12:00,
2013-05-07 13:15:00,83.8,54.9,30.05,WNW,286,0.0,4.0,37,0.00,,,0.00,960.0,meteobridge,2013-05-07 18:15:00,
2013-05-07 13:17:00,83.8,56.3,30.05,SSW,196,0.9,2.0,39,0.00,,,0.00,958.0,meteobridge,2013-05-07 18:17:00,
2013-05-07 13:18:00,83.8,56.3,30.05,SW,227,2.9,4.9,39,0.00,,,0.00,958.0,meteobridge,2013-05-07 18:18:00,
2013-05-07 13:20:00,83.5,56.7,30.05,SSE,157,2.0,6.9,40,0.00,,,0.00,958.0,meteobridge,2013-05-07 18:20:00,
2013-05-07 13:22:00,84.0,57.7,30.05,South,178,2.0,2.9,41,0.00,,,0.00,956.0,meteobridge,2013-05-07 18:22:00,
2013-05-07 13:23:00,83.8,57.0,30.05,South,171,0.9,2.9,40,0.00,,,0.00,958.0,meteobridge,2013-05-07 18:23:00,
2013-05-07 13:25:00,83.5,55.9,30.04,South,184,2.9,4.9,39,0.00,,,0.00,956.0,meteobridge,2013-05-07 18:25:00,
2013-05-07 13:27:00,83.1,57.6,30.04,WSW,255,2.0,2.9,42,0.00,,,0.00,953.0,meteobridge,2013-05-07 18:27:00,
2013-05-07 13:28:00,83.1,57.0,30.04,WSW,255,2.9,2.9,41,0.00,,,0.00,953.0,meteobridge,2013-05-07 18:28:00,
2013-05-07 13:31:00,83.8,57.6,30.04,WSW,255,0.9,2.9,41,0.00,,,0.00,847.0,meteobridge,2013-05-07 18:31:00,
2013-05-07 13:32:00,84.6,57.6,30.04,SSE,150,4.0,4.0,40,0.00,,,0.00,847.0,meteobridge,2013-05-07 18:32:00,
2013-05-07 13:33:00,84.7,57.7,30.04,SSE,150,2.9,4.0,40,0.00,,,0.00,847.0,meteobridge,2013-05-07 18:33:00,
2013-05-07 13:36:00,84.0,55.8,30.04,WSW,248,0.0,2.9,38,0.00,,,0.00,79.0,meteobridge,2013-05-07 18:36:00,
2013-05-07 13:38:00,83.8,56.3,30.04,WSW,248,0.9,2.9,39,0.00,,,0.00,79.0,meteobridge,2013-05-07 18:38:00,
2013-05-07 13:39:00,84.4,56.7,30.04,WSW,248,0.0,2.9,39,0.00,,,0.00,77.0,meteobridge,2013-05-07 18:39:00,
2013-05-07 13:41:00,84.6,56.8,30.04,SW,214,2.0,2.9,39,0.00,,,0.00,83.0,meteobridge,2013-05-07 18:41:00,
2013-05-07 13:43:00,83.7,55.4,30.04,SW,218,0.9,4.0,38,0.00,,,0.00,79.0,meteobridge,2013-05-07 18:43:00,
2013-05-07 13:44:00,83.3,56.5,30.04,SW,235,0.0,2.9,40,0.00,,,0.00,79.0,meteobridge,2013-05-07 18:44:00,
2013-05-07 13:47:00,84.0,56.5,30.03,West,265,0.0,2.0,39,0.00,,,0.00,83.0,meteobridge,2013-05-07 18:47:00,
2013-05-07 13:49:00,84.7,58.5,30.03,North,355,4.0,4.0,41,0.00,,,0.00,155.0,meteobridge,2013-05-07 18:49:00,
2013-05-07 13:50:00,85.6,57.2,30.03,NNE,24,2.0,4.0,38,0.00,,,0.00,285.0,meteobridge,2013-05-07 18:50:00,
2013-05-07 13:53:00,86.5,58.6,30.03,SE,129,0.9,2.9,39,0.00,,,0.00,564.0,meteobridge,2013-05-07 18:53:00,
2013-05-07 13:54:00,86.2,58.3,30.04,SSE,160,0.9,2.9,39,0.00,,,0.00,770.0,meteobridge,2013-05-07 18:54:00,
2013-05-07 13:55:00,85.5,57.0,30.03,West,269,0.9,2.9,38,0.00,,,0.00,860.0,meteobridge,2013-05-07 18:55:00,
2013-05-07 13:56:00,84.9,57.9,30.03,West,269,0.0,2.9,40,0.00,,,0.00,909.0,meteobridge,2013-05-07 18:56:00,
2013-05-07 13:59:00,86.5,58.6,30.03,NNW,334,0.9,2.9,39,0.00,,,0.00,930.0,meteobridge,2013-05-07 18:59:00,
2013-05-07 14:01:00,86.4,57.7,30.03,SE,130,2.0,2.9,38,0.00,,,0.00,867.0,meteobridge,2013-05-07 19:01:00,
2013-05-07 14:02:00,85.6,56.3,30.03,SE,133,0.0,2.9,37,0.00,,,0.00,930.0,meteobridge,2013-05-07 19:02:00,
2013-05-07 14:03:00,85.8,57.9,30.03,SE,133,0.0,0.9,39,0.00,,,0.00,928.0,meteobridge,2013-05-07 19:03:00,
2013-05-07 14:04:00,85.8,57.2,30.03,SE,133,0.9,0.9,38,0.00,,,0.00,928.0,meteobridge,2013-05-07 19:04:00,
2013-05-07 14:06:00,87.4,59.4,30.03,ESE,102,0.0,2.9,39,0.00,,,0.00,930.0,meteobridge,2013-05-07 19:06:00,
2013-05-07 14:07:00,87.8,59.0,30.03,ESE,102,0.0,2.9,38,0.00,,,0.00,930.0,meteobridge,2013-05-07 19:07:00,
2013-05-07 14:08:00,88.0,59.2,30.03,SW,227,2.9,2.9,38,0.00,,,0.00,928.0,meteobridge,2013-05-07 19:08:00,
2013-05-07 14:09:00,87.1,56.1,30.03,West,279,2.9,4.0,35,0.00,,,0.00,930.0,meteobridge,2013-05-07 19:09:00,
2013-05-07 14:10:00,86.9,57.6,30.03,NW,306,0.9,6.0,37,0.00,,,0.00,928.0,meteobridge,2013-05-07 19:10:00,
2013-05-07 14:12:00,87.1,56.1,30.03,SSW,200,4.0,4.0,35,0.00,,,0.00,926.0,meteobridge,2013-05-07 19:12:00,
2013-05-07 14:14:00,84.9,55.8,30.03,SSW,200,0.9,4.0,37,0.00,,,0.00,925.0,meteobridge,2013-05-07 19:14:00,
2013-05-07 14:15:00,84.7,56.3,30.03,WNW,286,0.0,2.9,38,0.00,,,0.00,923.0,meteobridge,2013-05-07 19:15:00,
2013-05-07 14:17:00,84.9,55.0,30.03,SW,215,4.9,6.9,36,0.00,,,0.00,923.0,meteobridge,2013-05-07 19:17:00,
2013-05-07 14:19:00,83.8,55.6,30.03,NNW,340,0.0,6.0,38,0.00,,,0.00,921.0,meteobridge,2013-05-07 19:19:00,
2013-05-07 14:21:00,84.9,57.2,30.03,NNW,340,0.9,2.0,39,0.00,,,0.00,919.0,meteobridge,2013-05-07 19:21:00,
2013-05-07 14:22:00,85.8,59.4,30.03,SW,222,4.0,4.9,41,0.00,,,0.00,918.0,meteobridge,2013-05-07 19:22:00,
2013-05-07 14:25:00,84.4,55.2,30.03,SW,229,0.9,4.0,37,0.00,,,0.00,914.0,meteobridge,2013-05-07 19:25:00,
2013-05-07 14:26:00,84.4,55.2,30.03,SW,229,0.9,4.0,37,0.00,,,0.00,914.0,meteobridge,2013-05-07 19:26:00,
2013-05-07 14:27:00,84.6,56.8,30.03,SW,229,0.9,4.0,39,0.00,,,0.00,911.0,meteobridge,2013-05-07 19:27:00,
2013-05-07 14:28:00,85.5,56.3,30.03,SSW,211,0.9,4.0,37,0.00,,,0.00,911.0,meteobridge,2013-05-07 19:28:00,
2013-05-07 14:31:00,86.2,56.8,30.03,SSW,210,2.9,2.9,37,0.00,,,0.00,907.0,meteobridge,2013-05-07 19:31:00,
2013-05-07 14:32:00,86.4,56.3,30.03,SW,217,4.0,4.9,36,0.00,,,0.00,904.0,meteobridge,2013-05-07 19:32:00,
2013-05-07 14:33:00,86.2,56.8,30.03,South,174,0.9,4.9,37,0.00,,,0.00,904.0,meteobridge,2013-05-07 19:33:00,
2013-05-07 14:34:00,85.8,56.5,30.03,SSW,207,2.0,4.9,37,0.00,,,0.00,904.0,meteobridge,2013-05-07 19:34:00,
2013-05-07 14:36:00,85.3,55.2,30.03,SSE,153,4.0,4.9,36,0.00,,,0.00,898.0,meteobridge,2013-05-07 19:36:00,
2013-05-07 14:37:00,84.9,56.5,30.03,SSW,202,0.9,4.0,38,0.00,,,0.00,895.0,meteobridge,2013-05-07 19:37:00,
2013-05-07 14:40:00,85.1,55.2,30.03,South,177,0.0,2.9,36,0.00,,,0.00,891.0,meteobridge,2013-05-07 19:40:00,
2013-05-07 14:41:00,85.3,56.1,30.02,South,177,0.0,2.9,37,0.00,,,0.00,888.0,meteobridge,2013-05-07 19:41:00,
2013-05-07 14:42:00,84.9,55.0,30.02,South,177,0.0,0.9,36,0.00,,,0.00,888.0,meteobridge,2013-05-07 19:42:00,
2013-05-07 14:43:00,84.9,55.0,30.02,South,176,0.9,2.9,36,0.00,,,0.00,889.0,meteobridge,2013-05-07 19:43:00,
2013-05-07 14:44:00,85.3,54.5,30.02,NNW,346,2.0,2.9,35,0.00,,,0.00,888.0,meteobridge,2013-05-07 19:44:00,
2013-05-07 14:46:00,86.2,56.1,30.02,West,265,2.0,6.0,36,0.00,,,0.00,884.0,meteobridge,2013-05-07 19:46:00,
2013-05-07 14:47:00,86.4,56.3,30.02,NNW,336,4.0,4.0,36,0.00,,,0.00,881.0,meteobridge,2013-05-07 19:47:00,
2013-05-07 14:48:00,86.5,56.5,30.02,WNW,296,2.9,4.9,36,0.00,,,0.00,882.0,meteobridge,2013-05-07 19:48:00,
2013-05-07 14:51:00,86.7,56.7,30.02,West,275,4.0,4.0,36,0.00,,,0.00,881.0,meteobridge,2013-05-07 19:51:00,
2013-05-07 14:52:00,86.5,54.9,30.02,NW,322,0.9,4.0,34,0.00,,,0.00,881.0,meteobridge,2013-05-07 19:52:00,
2013-05-07 14:53:00,86.7,55.8,30.02,NW,325,0.9,4.0,35,0.00,,,0.00,870.0,meteobridge,2013-05-07 19:53:00,
2013-05-07 14:54:00,86.7,55.0,30.02,NW,325,2.0,4.0,34,0.00,,,0.00,868.0,meteobridge,2013-05-07 19:54:00,
2013-05-07 14:56:00,87.8,55.9,30.02,North,355,2.0,4.0,34,0.00,,,0.00,863.0,meteobridge,2013-05-07 19:56:00,
2013-05-07 14:57:00,87.8,53.4,30.02,North,351,0.0,2.9,31,0.00,,,0.00,860.0,meteobridge,2013-05-07 19:57:00,
2013-05-07 14:58:00,87.4,53.1,30.02,North,351,2.0,2.0,31,0.00,,,0.00,860.0,meteobridge,2013-05-07 19:58:00,
2013-05-07 15:01:00,86.4,55.4,30.02,NW,315,0.9,2.0,35,0.00,,,0.00,858.0,meteobridge,2013-05-07 20:01:00,
2013-05-07 15:02:00,86.4,53.8,30.02,NW,315,0.9,2.0,33,0.00,,,0.00,856.0,meteobridge,2013-05-07 20:02:00,
2013-05-07 15:03:00,86.0,53.6,30.02,NW,315,0.0,2.0,33,0.00,,,0.00,854.0,meteobridge,2013-05-07 20:03:00,
2013-05-07 15:04:00,85.6,54.9,30.01,NW,326,2.0,2.9,35,0.00,,,0.00,851.0,meteobridge,2013-05-07 20:04:00,
2013-05-07 15:07:00,87.3,59.4,30.01,NW,326,0.0,2.9,39,0.00,,,0.00,842.0,meteobridge,2013-05-07 20:07:00,
2013-05-07 15:08:00,88.2,57.9,30.01,North,9,2.0,4.9,36,0.00,,,0.00,840.0,meteobridge,2013-05-07 20:08:00,
2013-05-07 15:09:00,89.2,57.9,30.01,North,351,0.0,4.9,35,0.00,,,0.00,838.0,meteobridge,2013-05-07 20:09:00,
2013-05-07 15:10:00,89.4,57.4,30.01,North,351,0.0,2.9,34,0.00,,,0.00,838.0,meteobridge,2013-05-07 20:10:00,
2013-05-07 15:12:00,90.9,59.4,30.01,North,351,0.0,0.9,35,0.00,,,0.00,838.0,meteobridge,2013-05-07 20:12:00,
2013-05-07 15:14:00,91.4,59.9,30.01,North,0,2.9,2.9,35,0.00,,,0.00,826.0,meteobridge,2013-05-07 20:14:00,
2013-05-07 15:15:00,91.2,57.2,30.01,North,0,0.0,2.9,32,0.00,,,0.00,831.0,meteobridge,2013-05-07 20:15:00,
2013-05-07 15:19:00,88.7,55.0,30.01,West,270,0.9,2.9,32,0.00,,,0.00,837.0,meteobridge,2013-05-07 20:19:00,
2013-05-07 15:20:00,88.2,56.3,30.01,NW,306,2.0,2.9,34,0.00,,,0.00,809.0,meteobridge,2013-05-07 20:20:00,
2013-05-07 15:24:00,87.6,57.4,30.01,NW,320,0.9,4.0,36,0.00,,,0.00,805.0,meteobridge,2013-05-07 20:24:00,
2013-05-07 15:25:00,87.6,57.4,30.01,WNW,286,4.0,4.9,36,0.00,,,0.00,802.0,meteobridge,2013-05-07 20:25:00,
2013-05-07 15:26:00,87.3,55.4,30.01,NNW,331,2.0,4.9,34,0.00,,,0.00,802.0,meteobridge,2013-05-07 20:26:00,
2013-05-07 15:29:00,88.3,55.6,30.01,NW,318,2.0,4.0,33,0.00,,,0.00,791.0,meteobridge,2013-05-07 20:29:00,
2013-05-07 15:30:00,87.6,55.0,30.00,NW,318,0.0,4.0,33,0.00,,,0.00,789.0,meteobridge,2013-05-07 20:30:00,
2013-05-07 15:31:00,86.9,55.9,30.00,NW,318,0.0,4.0,35,0.00,,,0.00,788.0,meteobridge,2013-05-07 20:31:00,
2013-05-07 15:32:00,86.5,55.6,30.00,NW,318,0.0,0.9,35,0.00,,,0.00,786.0,meteobridge,2013-05-07 20:32:00,
2013-05-07 15:34:00,85.5,56.3,30.00,NW,318,0.0,0.9,37,0.00,,,0.00,782.0,meteobridge,2013-05-07 20:34:00,
2013-05-07 15:35:00,85.6,56.3,30.00,NW,321,2.0,2.0,37,0.00,,,0.00,784.0,meteobridge,2013-05-07 20:35:00,
2013-05-07 15:36:00,87.1,59.2,30.00,NNW,331,0.9,2.0,39,0.00,,,0.00,773.0,meteobridge,2013-05-07 20:36:00,
2013-05-07 15:39:00,87.6,55.8,30.00,WNW,287,0.9,0.9,34,0.00,,,0.00,788.0,meteobridge,2013-05-07 20:39:00,
2013-05-07 15:40:00,87.6,56.7,30.00,WNW,287,0.9,0.9,35,0.00,,,0.00,782.0,meteobridge,2013-05-07 20:40:00,
2013-05-07 15:41:00,87.6,58.8,30.00,WNW,287,0.9,0.9,38,0.00,,,0.00,733.0,meteobridge,2013-05-07 20:41:00,
2013-05-07 15:42:00,88.0,59.9,30.00,SE,133,2.0,2.9,39,0.00,,,0.00,773.0,meteobridge,2013-05-07 20:42:00,
2013-05-07 15:45:00,87.4,57.9,29.99,SE,126,0.0,2.9,37,0.00,,,0.00,772.0,meteobridge,2013-05-07 20:45:00,
2013-05-07 15:46:00,87.8,58.3,30.00,SE,126,0.0,0.9,37,0.00,,,0.00,772.0,meteobridge,2013-05-07 20:46:00,
2013-05-07 15:47:00,87.8,59.0,30.00,SSE,158,0.0,2.9,38,0.00,,,0.00,766.0,meteobridge,2013-05-07 20:47:00,
2013-05-07 15:50:00,88.0,58.5,29.99,SSE,163,2.9,6.0,37,0.00,,,0.00,759.0,meteobridge,2013-05-07 20:50:00,
2013-05-07 15:51:00,87.4,58.6,29.99,South,185,2.0,4.0,38,0.00,,,0.00,752.0,meteobridge,2013-05-07 20:51:00,
2013-05-07 15:52:00,87.1,55.2,29.99,South,185,0.0,2.9,34,0.00,,,0.00,752.0,meteobridge,2013-05-07 20:52:00,
2013-05-07 15:53:00,86.2,57.6,29.99,ESE,111,2.0,2.9,38,0.00,,,0.00,668.0,meteobridge,2013-05-07 20:53:00,
2013-05-07 15:55:00,85.8,56.5,29.99,South,183,0.9,4.9,37,0.00,,,0.00,668.0,meteobridge,2013-05-07 20:55:00,
2013-05-07 15:56:00,85.5,57.7,29.99,SSW,194,2.9,4.0,39,0.00,,,0.00,90.0,meteobridge,2013-05-07 20:56:00,
2013-05-07 15:58:00,84.9,55.8,29.99,SSW,194,0.9,4.0,37,0.00,,,0.00,127.0,meteobridge,2013-05-07 20:58:00,
2013-05-07 16:02:00,85.3,57.6,29.99,SW,234,4.0,4.0,39,0.00,,,0.00,114.0,meteobridge,2013-05-07 21:02:00,
2013-05-07 16:03:00,85.3,56.8,29.99,WNW,299,2.9,6.9,38,0.00,,,0.00,174.0,meteobridge,2013-05-07 21:03:00,
2013-05-07 16:07:00,85.6,57.9,29.99,NNW,336,0.0,2.0,39,0.00,,,0.00,244.0,meteobridge,2013-05-07 21:07:00,
2013-05-07 16:08:00,86.2,59.0,29.99,NNW,340,2.9,4.0,40,0.00,,,0.00,141.0,meteobridge,2013-05-07 21:08:00,
2013-05-07 16:09:00,86.2,57.6,29.99,NNW,340,0.9,4.0,38,0.00,,,0.00,141.0,meteobridge,2013-05-07 21:09:00,
2013-05-07 16:10:00,86.2,56.1,29.99,North,5,2.0,4.9,36,0.00,,,0.00,230.0,meteobridge,2013-05-07 21:10:00,
2013-05-07 16:12:00,86.4,57.0,29.99,NE,34,0.0,4.0,37,0.00,,,0.00,320.0,meteobridge,2013-05-07 21:12:00,
2013-05-07 16:13:00,86.4,55.4,29.99,NE,34,0.0,0.9,35,0.00,,,0.00,320.0,meteobridge,2013-05-07 21:13:00,
2013-05-07 16:14:00,86.2,56.1,29.98,NE,34,0.0,0.9,36,0.00,,,0.00,446.0,meteobridge,2013-05-07 21:14:00,
2013-05-07 16:15:00,85.8,55.8,29.98,NE,34,0.9,0.9,36,0.00,,,0.00,446.0,meteobridge,2013-05-07 21:15:00,
2013-05-07 16:17:00,85.6,57.2,29.98,NW,307,2.9,2.9,38,0.00,,,0.00,95.0,meteobridge,2013-05-07 21:17:00,
2013-05-07 16:18:00,85.8,57.2,29.98,NW,308,2.9,4.9,38,0.00,,,0.00,95.0,meteobridge,2013-05-07 21:18:00,
2013-05-07 16:19:00,85.8,57.9,29.98,NW,309,2.9,4.9,39,0.00,,,0.00,656.0,meteobridge,2013-05-07 21:19:00,
2013-05-07 16:20:00,85.8,57.2,29.98,WNW,303,2.0,4.0,38,0.00,,,0.00,570.0,meteobridge,2013-05-07 21:20:00,
2013-05-07 16:23:00,86.4,57.7,29.98,NW,311,2.0,4.9,38,0.00,,,0.00,243.0,meteobridge,2013-05-07 21:23:00,
2013-05-07 16:25:00,86.2,56.1,29.98,North,350,6.0,6.0,36,0.00,,,0.00,179.0,meteobridge,2013-05-07 21:25:00,
2013-05-07 16:26:00,86.7,57.4,29.98,North,9,2.0,6.0,37,0.00,,,0.00,221.0,meteobridge,2013-05-07 21:26:00,
2013-05-07 16:28:00,86.9,57.6,29.98,WNW,292,0.9,4.0,37,0.00,,,0.00,492.0,meteobridge,2013-05-07 21:28:00,
2013-05-07 16:30:00,86.7,57.4,29.98,NW,319,0.9,2.0,37,0.00,,,0.00,158.0,meteobridge,2013-05-07 21:30:00,
2013-05-07 16:32:00,86.4,56.3,29.98,NW,317,0.9,2.0,36,0.00,,,0.00,193.0,meteobridge,2013-05-07 21:32:00,
2013-05-07 16:33:00,86.4,57.0,29.98,NW,313,0.0,4.0,37,0.00,,,0.00,135.0,meteobridge,2013-05-07 21:33:00,
2013-05-07 16:35:00,85.6,55.6,29.98,WSW,247,0.0,2.9,36,0.00,,,0.00,135.0,meteobridge,2013-05-07 21:35:00,
2013-05-07 16:36:00,85.6,57.2,29.98,WSW,247,0.0,2.0,38,0.00,,,0.00,135.0,meteobridge,2013-05-07 21:36:00,
2013-05-07 16:37:00,85.8,57.2,29.98,NW,318,2.0,2.9,38,0.00,,,0.00,272.0,meteobridge,2013-05-07 21:37:00,
2013-05-07 16:40:00,85.5,54.7,29.98,WNW,284,0.0,4.0,35,0.00,,,0.00,241.0,meteobridge,2013-05-07 21:40:00,
2013-05-07 16:42:00,85.6,57.2,29.98,WNW,303,0.0,2.9,38,0.00,,,0.00,169.0,meteobridge,2013-05-07 21:42:00,
2013-05-07 16:43:00,85.8,55.8,29.98,WNW,303,0.0,0.9,36,0.00,,,0.00,197.0,meteobridge,2013-05-07 21:43:00,
2013-05-07 16:45:00,87.1,56.1,29.98,SW,219,2.0,2.9,35,0.00,,,0.00,239.0,meteobridge,2013-05-07 21:45:00,
2013-05-07 16:46:00,86.9,55.9,29.98,SW,219,2.0,2.9,35,0.00,,,0.00,297.0,meteobridge,2013-05-07 21:46:00,
2013-05-07 16:47:00,86.5,57.2,29.98,South,181,0.0,2.9,37,0.00,,,0.00,369.0,meteobridge,2013-05-07 21:47:00,
2013-05-07 16:48:00,86.9,56.7,29.98,South,181,0.0,2.0,36,0.00,,,0.00,452.0,meteobridge,2013-05-07 21:48:00,
2013-05-07 16:49:00,87.3,57.0,29.98,South,181,0.0,0.9,36,0.00,,,0.00,515.0,meteobridge,2013-05-07 21:49:00,
2013-05-07 16:51:00,86.5,55.6,29.98,SSW,213,0.0,2.9,35,0.00,,,0.00,582.0,meteobridge,2013-05-07 21:51:00,
2013-05-07 16:52:00,86.5,55.6,29.98,SSW,213,0.0,0.0,35,0.00,,,0.00,578.0,meteobridge,2013-05-07 21:52:00,
2013-05-07 16:56:00,88.7,56.7,29.98,SSW,213,0.0,0.9,34,0.00,,,0.00,571.0,meteobridge,2013-05-07 21:56:00,
2013-05-07 16:57:00,88.2,57.0,29.98,SSW,213,0.0,0.9,35,0.00,,,0.00,568.0,meteobridge,2013-05-07 21:57:00,
2013-05-07 16:58:00,87.6,57.4,29.98,SSW,213,0.0,0.9,36,0.00,,,0.00,568.0,meteobridge,2013-05-07 21:58:00,
2013-05-07 16:59:00,87.4,57.2,29.98,SSW,213,0.0,0.9,36,0.00,,,0.00,568.0,meteobridge,2013-05-07 21:59:00,
2013-05-07 17:01:00,86.4,56.3,29.98,SSW,213,0.9,2.9,36,0.00,,,0.00,559.0,meteobridge,2013-05-07 22:01:00,
2013-05-07 17:02:00,86.0,56.7,29.98,SSW,213,0.0,2.9,37,0.00,,,0.00,557.0,meteobridge,2013-05-07 22:02:00,
2013-05-07 17:03:00,86.2,56.1,29.98,SSW,213,0.9,2.0,36,0.00,,,0.00,555.0,meteobridge,2013-05-07 22:03:00,
2013-05-07 17:04:00,86.9,58.3,29.98,SSW,213,0.0,2.0,38,0.00,,,0.00,554.0,meteobridge,2013-05-07 22:04:00,
2013-05-07 17:05:00,87.3,58.6,29.98,NW,323,2.0,2.0,38,0.00,,,0.00,550.0,meteobridge,2013-05-07 22:05:00,
2013-05-07 17:07:00,88.9,56.8,29.98,NNW,340,2.0,4.0,34,0.00,,,0.00,541.0,meteobridge,2013-05-07 22:07:00,
2013-05-07 17:08:00,89.2,58.8,29.98,NNW,340,0.0,4.0,36,0.00,,,0.00,536.0,meteobridge,2013-05-07 22:08:00,
2013-05-07 17:09:00,89.2,56.3,29.98,NNW,340,0.9,2.0,33,0.00,,,0.00,533.0,meteobridge,2013-05-07 22:09:00,
2013-05-07 17:10:00,89.1,57.0,29.98,NNW,340,0.0,2.0,34,0.00,,,0.00,529.0,meteobridge,2013-05-07 22:10:00,
2013-05-07 17:12:00,89.2,57.2,29.98,NNW,331,0.0,2.0,34,0.00,,,0.00,515.0,meteobridge,2013-05-07 22:12:00,
2013-05-07 17:13:00,89.2,57.2,29.98,WNW,303,4.0,4.0,34,0.00,,,0.00,515.0,meteobridge,2013-05-07 22:13:00,
2013-05-07 17:14:00,88.5,56.5,29.98,WNW,300,0.0,4.0,34,0.00,,,0.00,510.0,meteobridge,2013-05-07 22:14:00,
2013-05-07 17:15:00,88.2,56.3,29.98,NNW,343,0.9,4.0,34,0.00,,,0.00,504.0,meteobridge,2013-05-07 22:15:00,
2013-05-07 17:16:00,88.3,57.2,29.98,NNW,343,0.0,4.0,35,0.00,,,0.00,503.0,meteobridge,2013-05-07 22:16:00,
2013-05-07 17:17:00,88.2,56.3,29.98,NNW,343,0.9,0.9,34,0.00,,,0.00,496.0,meteobridge,2013-05-07 22:17:00,
2013-05-07 17:19:00,88.3,57.9,29.98,NNW,341,2.0,2.0,36,0.00,,,0.00,489.0,meteobridge,2013-05-07 22:19:00,
2013-05-07 17:20:00,88.0,57.7,29.98,WNW,293,0.9,4.0,36,0.00,,,0.00,485.0,meteobridge,2013-05-07 22:20:00,
2013-05-07 17:21:00,88.2,57.9,29.98,WNW,293,0.0,4.0,36,0.00,,,0.00,482.0,meteobridge,2013-05-07 22:21:00,
2013-05-07 17:22:00,88.5,57.4,29.98,WNW,292,0.0,0.9,35,0.00,,,0.00,478.0,meteobridge,2013-05-07 22:22:00,
2013-05-07 17:24:00,88.3,57.2,29.98,WNW,292,0.0,0.9,35,0.00,,,0.00,471.0,meteobridge,2013-05-07 22:24:00,
2013-05-07 17:25:00,88.3,57.2,29.98,WNW,293,0.0,0.9,35,0.00,,,0.00,469.0,meteobridge,2013-05-07 22:25:00,
2013-05-07 17:26:00,88.2,57.0,29.98,WNW,293,0.0,0.9,35,0.00,,,0.00,466.0,meteobridge,2013-05-07 22:26:00,
2013-05-07 17:27:00,88.0,58.5,29.98,WNW,293,0.0,0.9,37,0.00,,,0.00,462.0,meteobridge,2013-05-07 22:27:00,
2013-05-07 17:28:00,88.0,58.5,29.98,WNW,293,0.0,0.9,37,0.00,,,0.00,461.0,meteobridge,2013-05-07 22:28:00,
2013-05-07 17:31:00,87.6,58.1,29.98,WSW,258,0.0,2.9,37,0.00,,,0.00,455.0,meteobridge,2013-05-07 22:31:00,
2013-05-07 17:32:00,87.3,57.0,29.97,WSW,258,0.0,0.9,36,0.00,,,0.00,448.0,meteobridge,2013-05-07 22:32:00,
2013-05-07 17:33:00,87.1,56.8,29.97,West,259,2.0,2.0,36,0.00,,,0.00,443.0,meteobridge,2013-05-07 22:33:00,
2013-05-07 17:34:00,87.1,56.8,29.97,West,274,2.9,2.9,36,0.00,,,0.00,443.0,meteobridge,2013-05-07 22:34:00,
2013-05-07 17:37:00,87.6,57.4,29.97,WNW,292,0.0,0.9,36,0.00,,,0.00,431.0,meteobridge,2013-05-07 22:37:00,
2013-05-07 17:38:00,87.4,54.9,29.98,WNW,292,0.0,0.9,33,0.00,,,0.00,425.0,meteobridge,2013-05-07 22:38:00,
2013-05-07 17:39:00,87.1,55.2,29.98,WNW,292,0.0,0.9,34,0.00,,,0.00,422.0,meteobridge,2013-05-07 22:39:00,
2013-05-07 17:42:00,88.2,57.9,29.98,WNW,292,0.0,0.0,36,0.00,,,0.00,410.0,meteobridge,2013-05-07 22:42:00,
2013-05-07 17:44:00,88.5,59.0,29.98,WNW,292,0.0,0.0,37,0.00,,,0.00,406.0,meteobridge,2013-05-07 22:44:00,
2013-05-07 17:45:00,89.2,58.8,29.98,WNW,292,0.0,0.0,36,0.00,,,0.00,401.0,meteobridge,2013-05-07 22:45:00,
2013-05-07 17:46:00,88.5,55.8,29.97,WNW,292,0.0,0.9,33,0.00,,,0.00,397.0,meteobridge,2013-05-07 22:46:00,
2013-05-07 17:49:00,87.4,56.5,29.97,WNW,292,0.0,2.0,35,0.00,,,0.00,388.0,meteobridge,2013-05-07 22:49:00,
2013-05-07 17:50:00,87.4,56.5,29.98,WNW,288,0.9,2.0,35,0.00,,,0.00,387.0,meteobridge,2013-05-07 22:50:00,
2013-05-07 17:51:00,87.6,58.8,29.98,WNW,288,0.0,2.0,38,0.00,,,0.00,383.0,meteobridge,2013-05-07 22:51:00,
2013-05-07 17:54:00,87.8,56.7,29.98,SW,226,0.0,2.0,35,0.00,,,0.00,369.0,meteobridge,2013-05-07 22:54:00,
2013-05-07 17:55:00,87.3,56.3,29.98,West,280,0.9,2.0,35,0.00,,,0.00,362.0,meteobridge,2013-05-07 22:55:00,
2013-05-07 17:56:00,87.1,55.2,29.98,West,280,0.0,0.9,34,0.00,,,0.00,355.0,meteobridge,2013-05-07 22:56:00,
2013-05-07 17:57:00,87.4,57.2,29.97,West,278,0.0,0.0,36,0.00,,,0.00,352.0,meteobridge,2013-05-07 22:57:00,
2013-05-07 18:00:00,86.7,56.7,29.98,SSW,194,0.0,0.9,36,0.00,,,0.00,343.0,meteobridge,2013-05-07 23:00:00,
2013-05-07 18:01:00,86.2,54.5,29.98,West,278,0.9,4.0,34,0.00,,,0.00,83.0,meteobridge,2013-05-07 23:01:00,
2013-05-07 18:03:00,84.9,55.8,29.98,West,278,0.0,0.9,37,0.00,,,0.00,54.0,meteobridge,2013-05-07 23:03:00,
2013-05-07 18:06:00,84.0,57.7,29.98,West,278,0.0,0.9,41,0.00,,,0.00,60.0,meteobridge,2013-05-07 23:06:00,
2013-05-07 18:07:00,83.5,58.6,29.98,West,278,0.0,0.9,43,0.00,,,0.00,65.0,meteobridge,2013-05-07 23:07:00,
2013-05-07 18:09:00,82.6,59.0,29.98,West,278,0.0,0.0,45,0.00,,,0.00,295.0,meteobridge,2013-05-07 23:09:00,
2013-05-07 18:11:00,82.2,57.6,29.98,West,278,0.0,0.0,43,0.00,,,0.00,274.0,meteobridge,2013-05-07 23:11:00,
2013-05-07 18:12:00,82.8,57.9,29.98,West,278,0.0,0.0,43,0.00,,,0.00,269.0,meteobridge,2013-05-07 23:12:00,
2013-05-07 18:17:00,81.9,58.5,29.98,West,278,0.0,0.0,45,0.00,,,0.00,176.0,meteobridge,2013-05-07 23:17:00,
2013-05-07 18:18:00,81.5,58.6,29.98,West,278,0.0,0.0,46,0.00,,,0.00,220.0,meteobridge,2013-05-07 23:18:00,
2013-05-07 18:22:00,81.7,59.5,29.98,West,278,0.0,0.0,47,0.00,,,0.00,218.0,meteobridge,2013-05-07 23:22:00,
2013-05-07 18:23:00,81.5,56.8,29.98,West,279,0.0,0.0,43,0.00,,,0.00,137.0,meteobridge,2013-05-07 23:23:00,
2013-05-07 18:24:00,81.9,59.0,29.98,West,278,0.0,0.0,46,0.00,,,0.00,62.0,meteobridge,2013-05-07 23:24:00,
2013-05-07 18:27:00,82.0,59.2,29.98,West,278,0.0,0.0,46,0.00,,,0.00,58.0,meteobridge,2013-05-07 23:27:00,
2013-05-07 18:28:00,82.2,60.6,29.98,West,278,0.0,0.0,48,0.00,,,0.00,56.0,meteobridge,2013-05-07 23:28:00,
2013-05-07 18:29:00,82.6,57.7,29.97,West,278,0.9,0.9,43,0.00,,,0.00,60.0,meteobridge,2013-05-07 23:29:00,
2013-05-07 18:32:00,82.2,59.9,29.98,West,278,0.0,0.9,47,0.00,,,0.00,62.0,meteobridge,2013-05-07 23:32:00,
2013-05-07 18:34:00,82.0,58.6,29.98,West,278,0.0,0.0,45,0.00,,,0.00,65.0,meteobridge,2013-05-07 23:34:00,
2013-05-07 18:35:00,82.0,59.9,29.98,West,278,0.0,0.0,47,0.00,,,0.00,97.0,meteobridge,2013-05-07 23:35:00,
2013-05-07 18:36:00,81.7,59.5,29.98,West,278,0.0,0.0,47,0.00,,,0.00,109.0,meteobridge,2013-05-07 23:36:00,
2013-05-07 18:38:00,81.1,59.5,29.98,West,278,0.0,0.0,48,0.00,,,0.00,93.0,meteobridge,2013-05-07 23:38:00,
2013-05-07 18:40:00,82.2,59.9,29.98,West,278,0.0,0.9,47,0.00,,,0.00,188.0,meteobridge,2013-05-07 23:40:00,
2013-05-07 18:41:00,82.0,61.0,29.98,West,278,0.0,0.0,49,0.00,,,0.00,188.0,meteobridge,2013-05-07 23:41:00,
2013-05-07 18:43:00,82.0,60.4,29.98,West,278,0.0,0.0,48,0.00,,,0.00,186.0,meteobridge,2013-05-07 23:43:00,
2013-05-07 18:44:00,81.9,61.9,29.98,West,278,0.0,0.0,51,0.00,,,0.00,185.0,meteobridge,2013-05-07 23:44:00,
2013-05-07 18:46:00,81.5,62.8,29.98,West,278,0.0,0.0,53,0.00,,,0.00,178.0,meteobridge,2013-05-07 23:46:00,
2013-05-07 18:48:00,82.0,64.2,29.97,West,278,0.0,0.0,55,0.00,,,0.00,167.0,meteobridge,2013-05-07 23:48:00,
2013-05-07 18:49:00,82.8,63.3,29.98,West,278,0.0,0.0,52,0.00,,,0.00,160.0,meteobridge,2013-05-07 23:49:00,
2013-05-07 18:51:00,82.8,62.2,29.98,West,279,0.0,0.0,50,0.00,,,0.00,123.0,meteobridge,2013-05-07 23:51:00,
2013-05-07 18:53:00,82.0,62.6,29.97,West,279,0.0,0.0,52,0.00,,,0.00,58.0,meteobridge,2013-05-07 23:53:00,
2013-05-07 18:55:00,81.7,61.2,29.97,West,279,0.0,0.0,50,0.00,,,0.00,79.0,meteobridge,2013-05-07 23:55:00,
2013-05-07 18:56:00,81.3,61.5,29.97,West,278,0.0,0.0,51,0.00,,,0.00,79.0,meteobridge,2013-05-07 23:56:00,
2013-05-07 18:57:00,81.3,61.5,29.97,West,278,0.0,0.0,51,0.00,,,0.00,79.0,meteobridge,2013-05-07 23:57:00,
2013-05-07 18:58:00,81.7,63.9,29.97,West,278,0.0,0.0,55,0.00,,,0.00,51.0,meteobridge,2013-05-07 23:58:00,
2013-05-07 18:59:00,81.7,63.9,29.97,West,278,0.0,0.0,55,0.00,,,0.00,51.0,meteobridge,2013-05-07 23:59:00,
2013-05-07 19:01:00,81.0,61.2,29.97,West,278,0.0,0.0,51,0.00,,,0.00,72.0,meteobridge,2013-05-08 00:01:00,
2013-05-07 19:04:00,80.2,62.6,29.98,West,278,0.0,0.9,55,0.00,,,0.00,46.0,meteobridge,2013-05-08 00:04:00,
2013-05-07 19:05:00,80.1,63.9,29.98,West,278,0.0,0.0,58,0.00,,,0.00,79.0,meteobridge,2013-05-08 00:05:00,
2013-05-07 19:06:00,79.9,63.9,29.98,West,278,0.0,0.0,58,0.00,,,0.00,79.0,meteobridge,2013-05-08 00:06:00,
2013-05-07 19:09:00,80.1,63.0,29.98,West,278,0.0,0.0,56,0.00,,,0.00,49.0,meteobridge,2013-05-08 00:09:00,
2013-05-07 19:11:00,79.9,62.8,29.98,West,278,0.0,0.0,56,0.00,,,0.00,49.0,meteobridge,2013-05-08 00:11:00,
2013-05-07 19:12:00,79.3,63.3,29.98,West,278,0.0,0.0,58,0.00,,,0.00,44.0,meteobridge,2013-05-08 00:12:00,
2013-05-07 19:14:00,79.2,64.0,29.98,West,278,0.0,0.0,60,0.00,,,0.00,30.0,meteobridge,2013-05-08 00:14:00,
2013-05-07 19:15:00,78.8,63.7,29.98,West,278,0.0,0.0,60,0.00,,,0.00,28.0,meteobridge,2013-05-08 00:15:00,
2013-05-07 19:17:00,78.4,63.3,29.98,West,278,0.0,0.0,60,0.00,,,0.00,28.0,meteobridge,2013-05-08 00:17:00,
2013-05-07 19:18:00,78.3,64.2,29.98,West,278,0.0,0.0,62,0.00,,,0.00,28.0,meteobridge,2013-05-08 00:18:00,
2013-05-07 19:19:00,78.1,63.5,29.98,West,278,0.0,0.0,61,0.00,,,0.00,26.0,meteobridge,2013-05-08 00:19:00,
2013-05-07 19:20:00,77.9,63.9,29.98,West,278,0.0,0.0,62,0.00,,,0.00,26.0,meteobridge,2013-05-08 00:20:00,
2013-05-07 19:23:00,77.2,64.6,29.98,West,278,0.0,0.0,65,0.00,,,0.00,25.0,meteobridge,2013-05-08 00:23:00,
2013-05-07 19:24:00,77.2,64.6,29.98,West,278,0.0,0.0,65,0.00,,,0.00,25.0,meteobridge,2013-05-08 00:24:00,
2013-05-07 19:25:00,76.8,63.3,29.98,West,278,0.0,0.0,63,0.00,,,0.00,23.0,meteobridge,2013-05-08 00:25:00,
2013-05-07 19:26:00,76.8,63.3,29.98,West,278,0.0,0.0,63,0.00,,,0.00,23.0,meteobridge,2013-05-08 00:26:00,
2013-05-07 19:29:00,76.6,63.5,29.98,West,278,0.0,0.0,64,0.00,,,0.00,21.0,meteobridge,2013-05-08 00:29:00,
2013-05-07 19:30:00,76.5,63.3,29.98,West,278,0.0,0.0,64,0.00,,,0.00,19.0,meteobridge,2013-05-08 00:30:00,
2013-05-07 19:31:00,76.3,63.1,29.98,West,278,0.0,0.0,64,0.00,,,0.00,19.0,meteobridge,2013-05-08 00:31:00,
2013-05-07 19:35:00,75.7,63.1,29.98,West,278,0.0,0.0,65,0.00,,,0.00,18.0,meteobridge,2013-05-08 00:35:00,
2013-05-07 19:36:00,75.6,63.0,29.98,West,278,0.0,0.0,65,0.00,,,0.00,16.0,meteobridge,2013-05-08 00:36:00,
2013-05-07 19:40:00,74.8,63.1,29.98,West,278,0.0,0.0,67,0.00,,,0.00,14.0,meteobridge,2013-05-08 00:40:00,
2013-05-07 19:41:00,74.8,63.1,29.98,West,278,0.0,0.0,67,0.00,,,0.00,14.0,meteobridge,2013-05-08 00:41:00,
2013-05-07 19:42:00,74.7,63.0,29.99,West,278,0.0,0.0,67,0.00,,,0.00,12.0,meteobridge,2013-05-08 00:42:00,
2013-05-07 19:43:00,74.5,63.1,29.99,West,278,0.0,0.0,68,0.00,,,0.00,12.0,meteobridge,2013-05-08 00:43:00,
2013-05-07 19:46:00,74.1,63.3,29.99,West,278,0.0,0.0,69,0.00,,,0.00,11.0,meteobridge,2013-05-08 00:46:00,
2013-05-07 19:48:00,73.8,63.3,29.99,West,278,0.0,0.0,70,0.00,,,0.00,9.0,meteobridge,2013-05-08 00:48:00,
2013-05-07 19:50:00,73.2,62.8,29.99,West,278,0.0,0.0,70,0.00,,,0.00,7.0,meteobridge,2013-05-08 00:50:00,
2013-05-07 19:52:00,73.2,62.8,29.99,West,278,0.0,0.0,70,0.00,,,0.00,7.0,meteobridge,2013-05-08 00:52:00,
2013-05-07 19:53:00,72.9,63.0,29.99,West,278,0.0,0.9,71,0.00,,,0.00,5.0,meteobridge,2013-05-08 00:53:00,
2013-05-07 19:54:00,72.9,63.0,29.99,West,278,0.0,0.9,71,0.00,,,0.00,5.0,meteobridge,2013-05-08 00:54:00,
2013-05-07 19:58:00,72.1,62.6,29.99,West,278,0.0,0.0,72,0.00,,,0.00,0.0,meteobridge,2013-05-08 00:58:00,
2013-05-07 19:59:00,72.1,62.6,29.99,West,278,0.0,0.0,72,0.00,,,0.00,0.0,meteobridge,2013-05-08 00:59:00,
2013-05-07 20:01:00,72.1,62.6,29.99,West,278,0.0,0.0,72,0.00,,,0.00,0.0,meteobridge,2013-05-08 01:01:00,
2013-05-07 20:04:00,71.8,62.6,30.00,West,278,0.0,0.0,73,0.00,,,0.00,0.0,meteobridge,2013-05-08 01:04:00,
2013-05-07 20:06:00,71.6,62.4,30.00,West,278,0.0,0.0,73,0.00,,,0.00,0.0,meteobridge,2013-05-08 01:06:00,
2013-05-07 20:07:00,71.4,62.2,30.00,West,278,0.0,0.0,73,0.00,,,0.00,0.0,meteobridge,2013-05-08 01:07:00,
2013-05-07 20:10:00,71.4,62.2,30.00,WSW,239,0.0,2.0,73,0.00,,,0.00,0.0,meteobridge,2013-05-08 01:10:00,
2013-05-07 20:11:00,71.2,62.1,30.00,SW,219,0.0,0.9,73,0.00,,,0.00,0.0,meteobridge,2013-05-08 01:11:00,
2013-05-07 20:12:00,71.2,62.1,30.00,SW,219,0.9,0.9,73,0.00,,,0.00,0.0,meteobridge,2013-05-08 01:12:00,
2013-05-07 20:13:00,71.6,61.7,30.00,SW,219,0.0,2.0,71,0.00,,,0.00,0.0,meteobridge,2013-05-08 01:13:00,
2013-05-07 20:15:00,71.6,62.1,30.00,SW,219,0.0,0.0,72,0.00,,,0.00,0.0,meteobridge,2013-05-08 01:15:00,
2013-05-07 20:16:00,71.6,62.1,30.00,SW,219,0.9,0.9,72,0.00,,,0.00,0.0,meteobridge,2013-05-08 01:16:00,
2013-05-07 20:18:00,71.4,61.9,30.00,SW,219,0.0,0.9,72,0.00,,,0.00,0.0,meteobridge,2013-05-08 01:18:00,
2013-05-07 20:20:00,71.2,61.7,30.00,SW,219,0.0,0.0,72,0.00,,,0.00,0.0,meteobridge,2013-05-08 01:20:00,
2013-05-07 20:21:00,71.2,61.7,30.01,SW,219,0.0,0.0,72,0.00,,,0.00,0.0,meteobridge,2013-05-08 01:21:00,
2013-05-07 20:22:00,71.2,61.7,30.01,SW,219,0.0,0.0,72,0.00,,,0.00,0.0,meteobridge,2013-05-08 01:22:00,
2013-05-07 20:23:00,71.1,61.5,30.01,SW,219,0.0,0.0,72,0.00,,,0.00,0.0,meteobridge,2013-05-08 01:23:00,
2013-05-07 20:24:00,70.9,61.3,30.01,SW,219,0.0,0.9,72,0.00,,,0.00,0.0,meteobridge,2013-05-08 01:24:00,
2013-05-07 20:25:00,70.9,61.9,30.01,SW,219,0.0,0.0,73,0.00,,,0.00,0.0,meteobridge,2013-05-08 01:25:00,
2013-05-07 20:28:00,70.5,61.5,30.01,SW,219,0.0,0.0,73,0.00,,,0.00,0.0,meteobridge,2013-05-08 01:28:00,
2013-05-07 20:30:00,70.5,61.5,30.01,SW,219,0.0,0.0,73,0.00,,,0.00,0.0,meteobridge,2013-05-08 01:30:00,
2013-05-07 20:31:00,70.5,61.5,30.01,SW,219,0.0,0.0,73,0.00,,,0.00,0.0,meteobridge,2013-05-08 01:31:00,
2013-05-07 20:32:00,70.5,61.9,30.01,SW,219,0.0,0.0,74,0.00,,,0.00,0.0,meteobridge,2013-05-08 01:32:00,
2013-05-07 20:33:00,70.3,61.7,30.02,SW,219,0.0,0.0,74,0.00,,,0.00,0.0,meteobridge,2013-05-08 01:33:00,
2013-05-07 20:35:00,70.3,61.7,30.02,SW,219,0.0,0.0,74,0.00,,,0.00,0.0,meteobridge,2013-05-08 01:35:00,
2013-05-07 20:36:00,70.2,61.5,30.02,SW,219,0.0,0.0,74,0.00,,,0.00,0.0,meteobridge,2013-05-08 01:36:00,
2013-05-07 20:37:00,70.2,61.9,30.02,SW,219,0.0,0.0,75,0.00,,,0.00,0.0,meteobridge,2013-05-08 01:37:00,
2013-05-07 20:38:00,70.2,61.9,30.02,SW,219,0.0,0.0,75,0.00,,,0.00,0.0,meteobridge,2013-05-08 01:38:00,
2013-05-07 20:40:00,70.2,61.5,30.02,SW,219,2.0,2.0,74,0.00,,,0.00,0.0,meteobridge,2013-05-08 01:40:00,
2013-05-07 20:41:00,70.2,61.5,30.02,SW,219,0.9,2.0,74,0.00,,,0.00,0.0,meteobridge,2013-05-08 01:41:00,
2013-05-07 20:43:00,70.2,61.2,30.02,SW,219,0.9,2.9,73,0.00,,,0.00,0.0,meteobridge,2013-05-08 01:43:00,
2013-05-07 20:44:00,70.3,61.3,30.02,SW,219,0.0,0.9,73,0.00,,,0.00,0.0,meteobridge,2013-05-08 01:44:00,
2013-05-07 20:45:00,70.5,61.5,30.02,SW,219,0.0,2.0,73,0.00,,,0.00,0.0,meteobridge,2013-05-08 01:45:00,
2013-05-07 20:46:00,70.5,61.5,30.02,SW,219,0.0,0.9,73,0.00,,,0.00,0.0,meteobridge,2013-05-08 01:46:00,
2013-05-07 20:49:00,70.5,61.0,30.02,SSE,147,2.0,4.0,72,0.00,,,0.00,0.0,meteobridge,2013-05-08 01:49:00,
2013-05-07 20:50:00,70.5,61.0,30.02,SE,146,0.0,2.9,72,0.00,,,0.00,0.0,meteobridge,2013-05-08 01:50:00,
2013-05-07 20:51:00,70.5,61.0,30.02,SE,146,0.0,2.0,72,0.00,,,0.00,0.0,meteobridge,2013-05-08 01:51:00,
2013-05-07 20:54:00,70.5,60.6,30.02,SE,140,0.0,0.9,71,0.00,,,0.00,0.0,meteobridge,2013-05-08 01:54:00,
2013-05-07 20:55:00,70.5,60.6,30.02,SE,140,0.9,2.0,71,0.00,,,0.00,0.0,meteobridge,2013-05-08 01:55:00,
2013-05-07 20:56:00,70.5,60.6,30.02,SE,140,0.0,2.0,71,0.00,,,0.00,0.0,meteobridge,2013-05-08 01:56:00,
2013-05-07 20:57:00,70.3,60.4,30.02,SE,140,0.0,2.0,71,0.00,,,0.00,0.0,meteobridge,2013-05-08 01:57:00,
2013-05-07 21:00:00,70.2,60.3,30.02,SE,140,0.0,0.9,71,0.00,,,0.00,0.0,meteobridge,2013-05-08 02:00:00,
2013-05-07 21:01:00,70.2,60.6,30.02,SE,140,0.0,0.9,72,0.00,,,0.00,0.0,meteobridge,2013-05-08 02:01:00,
2013-05-07 21:02:00,70.0,60.6,30.02,SE,140,0.0,0.0,72,0.00,,,0.00,0.0,meteobridge,2013-05-08 02:02:00,
2013-05-07 21:03:00,70.0,60.6,30.02,SE,140,0.0,0.0,72,0.00,,,0.00,0.0,meteobridge,2013-05-08 02:03:00,
2013-05-07 21:05:00,69.8,59.9,30.03,SE,126,0.0,2.9,71,0.00,,,0.00,0.0,meteobridge,2013-05-08 02:05:00,
2013-05-07 21:06:00,70.0,60.1,30.03,SE,126,0.0,2.0,71,0.00,,,0.00,0.0,meteobridge,2013-05-08 02:06:00,
2013-05-07 21:07:00,70.0,59.7,30.03,SE,126,0.9,2.0,70,0.00,,,0.00,0.0,meteobridge,2013-05-08 02:07:00,
2013-05-07 21:09:00,70.0,60.1,30.03,SE,126,0.0,2.0,71,0.00,,,0.00,0.0,meteobridge,2013-05-08 02:09:00,
2013-05-07 21:11:00,69.6,60.3,30.03,SE,126,0.0,0.0,72,0.00,,,0.00,0.0,meteobridge,2013-05-08 02:11:00,
2013-05-07 21:12:00,69.6,60.3,30.03,SE,126,0.0,0.0,72,0.00,,,0.00,0.0,meteobridge,2013-05-08 02:12:00,
2013-05-07 21:13:00,69.4,60.1,30.03,SE,126,0.0,0.0,72,0.00,,,0.00,0.0,meteobridge,2013-05-08 02:13:00,
2013-05-07 21:14:00,69.4,60.1,30.03,SE,126,0.0,0.0,72,0.00,,,0.00,0.0,meteobridge,2013-05-08 02:14:00,
2013-05-07 21:17:00,69.3,59.9,30.03,SE,126,0.0,0.9,72,0.00,,,0.00,0.0,meteobridge,2013-05-08 02:17:00,
2013-05-07 21:18:00,69.3,59.5,30.03,SE,126,0.0,0.0,71,0.00,,,0.00,0.0,meteobridge,2013-05-08 02:18:00,
2013-05-07 21:21:00,69.1,59.4,30.03,SE,126,0.0,0.0,71,0.00,,,0.00,0.0,meteobridge,2013-05-08 02:21:00,
2013-05-07 21:22:00,69.1,59.4,30.03,SE,126,0.0,0.0,71,0.00,,,0.00,0.0,meteobridge,2013-05-08 02:22:00,
2013-05-07 21:23:00,68.9,59.2,30.03,SE,126,0.0,0.0,71,0.00,,,0.00,0.0,meteobridge,2013-05-08 02:23:00,
2013-05-07 21:24:00,68.9,59.2,30.03,SE,126,0.0,0.0,71,0.00,,,0.00,0.0,meteobridge,2013-05-08 02:24:00,
2013-05-07 21:28:00,68.5,58.8,30.03,SE,126,0.0,0.0,71,0.00,,,0.00,0.0,meteobridge,2013-05-08 02:28:00,
2013-05-07 21:29:00,68.5,59.2,30.03,SE,126,0.0,0.0,72,0.00,,,0.00,0.0,meteobridge,2013-05-08 02:29:00,
2013-05-07 21:31:00,68.4,59.0,30.03,SE,126,0.0,0.0,72,0.00,,,0.00,0.0,meteobridge,2013-05-08 02:31:00,
2013-05-07 21:33:00,68.2,59.2,30.03,SE,126,0.0,0.0,73,0.00,,,0.00,0.0,meteobridge,2013-05-08 02:33:00,
2013-05-07 21:34:00,68.0,59.4,30.03,SE,126,0.0,0.0,74,0.00,,,0.00,0.0,meteobridge,2013-05-08 02:34:00,
2013-05-07 21:35:00,67.6,59.0,30.03,SE,126,0.0,0.0,74,0.00,,,0.00,0.0,meteobridge,2013-05-08 02:35:00,
2013-05-07 21:36:00,67.5,59.2,30.03,SE,126,0.0,0.0,75,0.00,,,0.00,0.0,meteobridge,2013-05-08 02:36:00,
2013-05-07 21:39:00,67.3,59.5,30.03,SE,126,0.0,0.0,76,0.00,,,0.00,0.0,meteobridge,2013-05-08 02:39:00,
2013-05-07 21:40:00,66.9,59.2,30.03,SE,126,0.0,0.0,76,0.00,,,0.00,0.0,meteobridge,2013-05-08 02:40:00,
2013-05-07 21:43:00,66.7,59.0,30.03,SE,126,0.0,0.0,76,0.00,,,0.00,0.0,meteobridge,2013-05-08 02:43:00,
2013-05-07 21:44:00,66.7,59.0,30.03,SE,126,0.0,0.0,76,0.00,,,0.00,0.0,meteobridge,2013-05-08 02:44:00,
2013-05-07 21:45:00,66.7,59.0,30.03,SE,126,0.0,0.0,76,0.00,,,0.00,0.0,meteobridge,2013-05-08 02:45:00,
2013-05-07 21:46:00,66.6,58.8,30.03,SE,126,0.0,0.0,76,0.00,,,0.00,0.0,meteobridge,2013-05-08 02:46:00,
2013-05-07 21:48:00,66.6,58.8,30.03,SE,126,0.0,0.0,76,0.00,,,0.00,0.0,meteobridge,2013-05-08 02:48:00,
2013-05-07 21:50:00,66.4,58.6,30.03,SE,126,0.0,0.0,76,0.00,,,0.00,0.0,meteobridge,2013-05-08 02:50:00,
2013-05-07 21:52:00,66.2,58.8,30.03,SE,126,0.0,0.0,77,0.00,,,0.00,0.0,meteobridge,2013-05-08 02:52:00,
2013-05-07 21:53:00,66.0,58.6,30.03,SE,126,0.0,0.0,77,0.00,,,0.00,0.0,meteobridge,2013-05-08 02:53:00,
2013-05-07 21:55:00,65.8,58.8,30.03,SE,126,0.0,0.0,78,0.00,,,0.00,0.0,meteobridge,2013-05-08 02:55:00,
2013-05-07 21:58:00,65.5,58.8,30.03,SE,126,0.0,0.0,79,0.00,,,0.00,0.0,meteobridge,2013-05-08 02:58:00,
2013-05-07 21:59:00,65.5,58.8,30.03,SE,126,0.0,0.0,79,0.00,,,0.00,0.0,meteobridge,2013-05-08 02:59:00,
2013-05-07 22:00:00,65.1,58.5,30.03,SE,126,0.0,0.0,79,0.00,,,0.00,0.0,meteobridge,2013-05-08 03:00:00,
2013-05-07 22:04:00,64.9,59.0,30.03,SE,126,0.0,0.0,81,0.00,,,0.00,0.0,meteobridge,2013-05-08 03:04:00,
2013-05-07 22:05:00,64.9,58.6,30.03,SE,126,0.0,0.0,80,0.00,,,0.00,0.0,meteobridge,2013-05-08 03:05:00,
2013-05-07 22:06:00,64.8,58.8,30.03,SE,126,0.0,0.0,81,0.00,,,0.00,0.0,meteobridge,2013-05-08 03:06:00,
2013-05-07 22:09:00,64.8,58.8,30.03,SE,126,0.0,0.0,81,0.00,,,0.00,0.0,meteobridge,2013-05-08 03:09:00,
2013-05-07 22:10:00,64.8,58.8,30.03,SE,126,0.0,0.0,81,0.00,,,0.00,0.0,meteobridge,2013-05-08 03:10:00,
2013-05-07 22:12:00,64.6,58.6,30.03,SE,126,0.0,0.0,81,0.00,,,0.00,0.0,meteobridge,2013-05-08 03:12:00,
2013-05-07 22:15:00,64.2,58.6,30.03,SE,126,0.0,0.0,82,0.00,,,0.00,0.0,meteobridge,2013-05-08 03:15:00,
2013-05-07 22:16:00,64.2,58.6,30.04,SE,126,0.0,0.0,82,0.00,,,0.00,0.0,meteobridge,2013-05-08 03:16:00,
2013-05-07 22:18:00,63.9,58.3,30.03,SE,126,0.0,0.0,82,0.00,,,0.00,0.0,meteobridge,2013-05-08 03:18:00,
2013-05-07 22:19:00,63.9,58.6,30.04,SE,126,0.0,0.0,83,0.00,,,0.00,0.0,meteobridge,2013-05-08 03:19:00,
2013-05-07 22:20:00,63.9,58.6,30.04,SE,126,0.0,0.0,83,0.00,,,0.00,0.0,meteobridge,2013-05-08 03:20:00,
2013-05-07 22:21:00,63.9,58.6,30.04,SE,126,0.0,0.0,83,0.00,,,0.00,0.0,meteobridge,2013-05-08 03:21:00,
2013-05-07 22:24:00,63.7,58.5,30.03,SE,126,0.0,0.0,83,0.00,,,0.00,0.0,meteobridge,2013-05-08 03:24:00,
2013-05-07 22:26:00,63.5,58.3,30.03,SE,126,0.0,0.0,83,0.00,,,0.00,0.0,meteobridge,2013-05-08 03:26:00,
2013-05-07 22:27:00,63.3,58.1,30.04,SE,126,0.0,0.0,83,0.00,,,0.00,0.0,meteobridge,2013-05-08 03:27:00,
2013-05-07 22:29:00,63.3,58.1,30.04,SE,126,0.0,0.0,83,0.00,,,0.00,0.0,meteobridge,2013-05-08 03:29:00,
2013-05-07 22:30:00,63.1,58.3,30.03,SE,126,0.0,0.0,84,0.00,,,0.00,0.0,meteobridge,2013-05-08 03:30:00,
2013-05-07 22:31:00,63.1,58.3,30.04,SE,126,0.0,0.0,84,0.00,,,0.00,0.0,meteobridge,2013-05-08 03:31:00,
2013-05-07 22:32:00,63.1,58.3,30.04,SE,126,0.0,0.0,84,0.00,,,0.00,0.0,meteobridge,2013-05-08 03:32:00,
2013-05-07 22:34:00,63.1,58.3,30.04,SE,126,0.0,0.0,84,0.00,,,0.00,0.0,meteobridge,2013-05-08 03:34:00,
2013-05-07 22:35:00,63.1,58.3,30.04,SE,126,0.0,0.0,84,0.00,,,0.00,0.0,meteobridge,2013-05-08 03:35:00,
2013-05-07 22:38:00,62.8,57.9,30.04,SE,126,0.0,0.0,84,0.00,,,0.00,0.0,meteobridge,2013-05-08 03:38:00,
2013-05-07 22:39:00,62.8,57.9,30.04,SE,126,0.0,0.0,84,0.00,,,0.00,0.0,meteobridge,2013-05-08 03:39:00,
2013-05-07 22:40:00,62.8,57.9,30.04,SE,126,0.0,0.0,84,0.00,,,0.00,0.0,meteobridge,2013-05-08 03:40:00,
2013-05-07 22:44:00,62.6,57.7,30.04,SE,126,0.0,0.0,84,0.00,,,0.00,0.0,meteobridge,2013-05-08 03:44:00,
2013-05-07 22:45:00,62.4,57.9,30.04,SE,126,0.0,0.0,85,0.00,,,0.00,0.0,meteobridge,2013-05-08 03:45:00,
2013-05-07 22:46:00,62.4,57.9,30.04,SE,126,0.0,0.0,85,0.00,,,0.00,0.0,meteobridge,2013-05-08 03:46:00,
2013-05-07 22:49:00,62.2,57.7,30.04,SE,126,0.0,0.0,85,0.00,,,0.00,0.0,meteobridge,2013-05-08 03:49:00,
2013-05-07 22:50:00,62.2,57.7,30.04,SE,126,0.0,0.0,85,0.00,,,0.00,0.0,meteobridge,2013-05-08 03:50:00,
2013-05-07 22:51:00,62.2,57.7,30.04,SE,126,0.0,0.0,85,0.00,,,0.00,0.0,meteobridge,2013-05-08 03:51:00,
2013-05-07 22:55:00,62.1,57.6,30.04,SE,126,0.0,0.0,85,0.00,,,0.00,0.0,meteobridge,2013-05-08 03:55:00,
2013-05-07 22:58:00,61.9,57.6,30.04,SE,126,0.0,0.0,86,0.00,,,0.00,0.0,meteobridge,2013-05-08 03:58:00,
2013-05-07 22:59:00,61.9,57.6,30.04,SE,126,0.0,0.0,86,0.00,,,0.00,0.0,meteobridge,2013-05-08 03:59:00,
2013-05-07 23:00:00,61.9,57.6,30.05,SE,126,0.0,0.0,86,0.00,,,0.00,0.0,meteobridge,2013-05-08 04:00:00,
2013-05-07 23:01:00,61.9,57.6,30.05,SE,126,0.0,0.0,86,0.00,,,0.00,0.0,meteobridge,2013-05-08 04:01:00,
2013-05-07 23:02:00,61.7,57.4,30.04,SE,126,0.0,0.0,86,0.00,,,0.00,0.0,meteobridge,2013-05-08 04:02:00,
2013-05-07 23:04:00,61.7,57.4,30.04,SE,126,0.0,0.0,86,0.00,,,0.00,0.0,meteobridge,2013-05-08 04:04:00,
2013-05-07 23:06:00,61.5,57.4,30.05,SE,126,0.0,0.0,86,0.00,,,0.00,0.0,meteobridge,2013-05-08 04:06:00,
2013-05-07 23:07:00,61.5,57.4,30.05,SE,126,0.0,0.0,86,0.00,,,0.00,0.0,meteobridge,2013-05-08 04:07:00,
2013-05-07 23:08:00,61.5,57.4,30.05,SE,126,0.0,0.0,86,0.00,,,0.00,0.0,meteobridge,2013-05-08 04:08:00,
2013-05-07 23:10:00,61.3,57.4,30.05,SE,126,0.0,0.0,87,0.00,,,0.00,0.0,meteobridge,2013-05-08 04:10:00,
2013-05-07 23:12:00,61.3,57.4,30.05,SE,126,0.0,0.0,87,0.00,,,0.00,0.0,meteobridge,2013-05-08 04:12:00,
2013-05-07 23:13:00,61.3,57.4,30.05,SE,126,0.0,0.0,87,0.00,,,0.00,0.0,meteobridge,2013-05-08 04:13:00,
2013-05-07 23:16:00,61.2,57.2,30.05,SE,126,0.0,0.0,87,0.00,,,0.00,0.0,meteobridge,2013-05-08 04:16:00,
2013-05-07 23:17:00,61.2,57.2,30.05,SE,126,0.0,0.0,87,0.00,,,0.00,0.0,meteobridge,2013-05-08 04:17:00,
2013-05-07 23:18:00,61.2,57.2,30.05,SE,126,0.0,0.0,87,0.00,,,0.00,0.0,meteobridge,2013-05-08 04:18:00,
2013-05-07 23:19:00,61.2,57.2,30.05,SE,126,0.0,0.0,87,0.00,,,0.00,0.0,meteobridge,2013-05-08 04:19:00,
2013-05-07 23:22:00,61.0,57.0,30.05,SE,126,0.0,0.0,87,0.00,,,0.00,0.0,meteobridge,2013-05-08 04:22:00,
2013-05-07 23:23:00,61.0,57.0,30.05,SE,126,0.0,0.0,87,0.00,,,0.00,0.0,meteobridge,2013-05-08 04:23:00,
2013-05-07 23:24:00,61.0,57.0,30.05,SE,126,0.0,0.0,87,0.00,,,0.00,0.0,meteobridge,2013-05-08 04:24:00,
2013-05-07 23:25:00,60.8,57.2,30.05,SE,126,0.0,0.0,88,0.00,,,0.00,0.0,meteobridge,2013-05-08 04:25:00,
2013-05-07 23:29:00,61.0,57.4,30.05,SE,126,0.0,0.0,88,0.00,,,0.00,0.0,meteobridge,2013-05-08 04:29:00,
2013-05-07 23:30:00,61.0,57.4,30.05,SE,126,0.0,0.0,88,0.00,,,0.00,0.0,meteobridge,2013-05-08 04:30:00,
2013-05-07 23:34:00,60.6,57.0,30.05,SE,126,0.0,0.0,88,0.00,,,0.00,0.0,meteobridge,2013-05-08 04:34:00,
2013-05-07 23:35:00,60.6,57.0,30.05,SE,126,0.0,0.0,88,0.00,,,0.00,0.0,meteobridge,2013-05-08 04:35:00,
2013-05-07 23:36:00,60.6,57.0,30.05,SE,126,0.0,0.0,88,0.00,,,0.00,0.0,meteobridge,2013-05-08 04:36:00,
2013-05-07 23:37:00,60.6,57.0,30.05,SE,126,0.0,0.0,88,0.00,,,0.00,0.0,meteobridge,2013-05-08 04:37:00,
2013-05-07 23:39:00,60.4,56.8,30.05,SE,126,0.0,0.0,88,0.00,,,0.00,0.0,meteobridge,2013-05-08 04:39:00,
2013-05-07 23:41:00,60.4,56.8,30.05,SE,126,0.0,0.0,88,0.00,,,0.00,0.0,meteobridge,2013-05-08 04:41:00,
2013-05-07 23:42:00,60.4,57.2,30.05,SE,126,0.0,0.0,89,0.00,,,0.00,0.0,meteobridge,2013-05-08 04:42:00,
2013-05-07 23:43:00,60.4,57.2,30.05,SE,126,0.0,0.0,89,0.00,,,0.00,0.0,meteobridge,2013-05-08 04:43:00,
2013-05-07 23:46:00,60.3,57.0,30.05,SE,126,0.0,0.0,89,0.00,,,0.00,0.0,meteobridge,2013-05-08 04:46:00,
2013-05-07 23:47:00,60.3,57.0,30.05,SE,126,0.0,0.0,89,0.00,,,0.00,0.0,meteobridge,2013-05-08 04:47:00,
2013-05-07 23:48:00,60.3,57.0,30.05,SE,126,0.0,0.0,89,0.00,,,0.00,0.0,meteobridge,2013-05-08 04:48:00,
2013-05-07 23:52:00,60.1,56.8,30.05,SE,126,0.0,0.0,89,0.00,,,0.00,0.0,meteobridge,2013-05-08 04:52:00,
2013-05-07 23:53:00,60.1,57.2,30.05,SE,126,0.0,0.0,90,0.00,,,0.00,0.0,meteobridge,2013-05-08 04:53:00,
2013-05-07 23:54:00,60.1,56.8,30.05,SE,126,0.0,0.0,89,0.00,,,0.00,0.0,meteobridge,2013-05-08 04:54:00,
2013-05-07 23:57:00,60.1,57.2,30.05,SE,126,0.0,0.0,90,0.00,,,0.00,0.0,meteobridge,2013-05-08 04:57:00,
2013-05-07 23:59:00,60.1,57.2,30.05,SE,126,0.0,0.0,90,0.00,,,0.00,0.0,meteobridge,2013-05-08 04:59:00,